Time,TemperatureF,DewpointF,PressureIn,WindDirection,WindDirectionDegrees,WindSpeedMPH,WindSpeedGustMPH,Humidity,HourlyPrecipIn,Conditions,Clouds,dailyrainin,SoftwareType,DateUTC
2013-03-22 00:00:00,20.3,16.0,29.65,West,265,1.0,7.0,83,0.00,,,0.33,Wunderground v.1.15,2013-03-22 04:00:00,
2013-03-22 00:02:00,20.3,15.7,29.65,NW,313,1.0,3.0,82,0.00,,,0.33,Wunderground v.1.15,2013-03-22 04:02:00,
2013-03-22 00:05:00,20.2,15.6,29.65,NW,309,0.0,3.0,82,0.00,,,0.00,Wunderground v.1.15,2013-03-22 04:05:00,
2013-03-22 00:06:00,20.2,15.6,29.65,North,5,6.0,6.0,82,0.00,,,0.00,Wunderground v.1.15,2013-03-22 04:06:00,
2013-03-22 00:08:00,20.2,15.0,29.65,North,350,2.0,6.0,80,0.00,,,0.00,Wunderground v.1.15,2013-03-22 04:08:00,
2013-03-22 00:09:00,20.2,15.0,29.65,NW,314,2.0,6.0,80,0.00,,,0.00,Wunderground v.1.15,2013-03-22 04:09:00,
2013-03-22 00:10:00,20.1,14.9,29.65,WNW,285,0.0,2.0,80,0.00,,,0.00,Wunderground v.1.15,2013-03-22 04:10:00,
2013-03-22 00:14:00,20.0,14.5,29.65,NW,321,3.0,3.0,79,0.00,,,0.00,Wunderground v.1.15,2013-03-22 04:14:00,
2013-03-22 00:15:00,20.0,14.5,29.65,West,274,1.0,3.0,79,0.00,,,0.00,Wunderground v.1.15,2013-03-22 04:15:00,
2013-03-22 00:18:00,19.9,14.1,29.65,WNW,294,0.0,3.0,78,0.00,,,0.00,Wunderground v.1.15,2013-03-22 04:18:00,
2013-03-22 00:19:00,19.8,14.0,29.65,West,269,5.0,5.0,78,0.00,,,0.00,Wunderground v.1.15,2013-03-22 04:19:00,
2013-03-22 00:20:00,19.9,13.9,29.65,North,355,0.0,2.0,77,0.00,,,0.00,Wunderground v.1.15,2013-03-22 04:20:00,
2013-03-22 00:22:00,19.9,13.6,29.65,WSW,245,6.0,6.0,76,0.00,,,0.00,Wunderground v.1.15,2013-03-22 04:22:00,
2013-03-22 00:24:00,19.9,13.6,29.65,NW,304,0.0,6.0,76,0.00,,,0.00,Wunderground v.1.15,2013-03-22 04:24:00,
2013-03-22 00:27:00,19.8,13.2,29.65,WSW,241,0.0,8.0,75,0.00,,,0.00,Wunderground v.1.15,2013-03-22 04:27:00,
2013-03-22 00:28:00,19.8,13.2,29.65,WSW,254,5.0,8.0,75,0.00,,,0.00,Wunderground v.1.15,2013-03-22 04:28:00,
2013-03-22 00:29:00,19.7,13.4,29.65,West,273,1.0,8.0,76,0.00,,,0.00,Wunderground v.1.15,2013-03-22 04:29:00,
2013-03-22 00:30:00,19.7,13.4,29.65,West,271,4.0,4.0,76,0.00,,,0.00,Wunderground v.1.15,2013-03-22 04:30:00,
2013-03-22 00:35:00,19.5,13.2,29.65,West,270,3.0,4.0,76,0.00,,,0.00,Wunderground v.1.15,2013-03-22 04:35:00,
2013-03-22 00:36:00,19.5,13.2,29.65,WNW,289,1.0,4.0,76,0.00,,,0.00,Wunderground v.1.15,2013-03-22 04:36:00,
2013-03-22 00:38:00,19.5,13.2,29.65,WSW,246,4.0,4.0,76,0.00,,,0.00,Wunderground v.1.15,2013-03-22 04:38:00,
2013-03-22 00:42:00,19.4,14.8,29.65,WNW,285,1.0,3.0,82,0.00,,,0.00,Wunderground v.1.15,2013-03-22 04:42:00,
2013-03-22 00:43:00,19.3,12.7,29.65,West,281,4.0,4.0,75,0.00,,,0.00,Wunderground v.1.15,2013-03-22 04:43:00,
2013-03-22 00:48:00,19.1,12.8,29.66,West,267,0.0,4.0,76,0.00,,,0.00,Wunderground v.1.15,2013-03-22 04:48:00,
2013-03-22 00:49:00,19.1,12.8,29.65,NW,308,1.0,4.0,76,0.00,,,0.00,Wunderground v.1.15,2013-03-22 04:49:00,
2013-03-22 00:51:00,19.0,12.7,29.65,NNE,15,1.0,2.0,76,0.00,,,0.00,Wunderground v.1.15,2013-03-22 04:51:00,
2013-03-22 00:53:00,19.0,12.7,29.65,West,278,0.0,2.0,76,0.00,,,0.00,Wunderground v.1.15,2013-03-22 04:53:00,
2013-03-22 00:55:00,19.0,12.7,29.65,West,263,3.0,7.0,76,0.00,,,0.00,Wunderground v.1.15,2013-03-22 04:55:00,
2013-03-22 00:57:00,19.0,12.4,29.66,NNW,327,9.0,9.0,75,0.00,,,0.00,Wunderground v.1.15,2013-03-22 04:57:00,
2013-03-22 01:00:00,19.2,12.6,29.66,NW,321,5.0,5.0,75,0.00,,,0.00,Wunderground v.1.15,2013-03-22 05:00:00,
2013-03-22 01:02:00,19.2,12.6,29.66,NNW,333,2.0,5.0,75,0.00,,,0.00,Wunderground v.1.15,2013-03-22 05:02:00,
2013-03-22 01:03:00,19.2,12.6,29.66,NNE,24,0.0,5.0,75,0.00,,,0.00,Wunderground v.1.15,2013-03-22 05:03:00,
2013-03-22 01:08:00,19.1,12.2,29.65,NW,315,1.0,5.0,74,0.00,,,0.00,Wunderground v.1.15,2013-03-22 05:08:00,
2013-03-22 01:09:00,19.1,12.2,29.66,NW,313,0.0,5.0,74,0.00,,,0.00,Wunderground v.1.15,2013-03-22 05:09:00,
2013-03-22 01:11:00,19.1,12.2,29.65,West,260,3.0,3.0,74,0.00,,,0.00,Wunderground v.1.15,2013-03-22 05:11:00,
2013-03-22 01:15:00,19.0,12.1,29.65,WSW,242,0.0,3.0,74,0.00,,,0.00,Wunderground v.1.15,2013-03-22 05:15:00,
2013-03-22 01:16:00,19.0,12.1,29.65,NW,316,3.0,3.0,74,0.00,,,0.00,Wunderground v.1.15,2013-03-22 05:16:00,
2013-03-22 01:19:00,19.0,11.8,29.65,WSW,251,0.0,3.0,73,0.00,,,0.00,Wunderground v.1.15,2013-03-22 05:19:00,
2013-03-22 01:22:00,19.0,11.8,29.65,NW,306,3.0,4.0,73,0.00,,,0.00,Wunderground v.1.15,2013-03-22 05:22:00,
2013-03-22 01:23:00,18.9,11.7,29.65,West,270,2.0,4.0,73,0.00,,,0.00,Wunderground v.1.15,2013-03-22 05:23:00,
2013-03-22 01:28:00,18.7,11.5,29.66,West,279,0.0,8.0,73,0.00,,,0.00,Wunderground v.1.15,2013-03-22 05:28:00,
2013-03-22 01:30:00,18.7,11.5,29.65,NW,321,2.0,2.0,73,0.00,,,0.00,Wunderground v.1.15,2013-03-22 05:30:00,
2013-03-22 01:31:00,18.6,11.7,29.65,NW,316,0.0,2.0,74,0.00,,,0.00,Wunderground v.1.15,2013-03-22 05:31:00,
2013-03-22 01:32:00,18.6,11.4,29.65,WNW,284,4.0,4.0,73,0.00,,,0.00,Wunderground v.1.15,2013-03-22 05:32:00,
2013-03-22 01:35:00,18.5,11.3,29.65,West,268,2.0,4.0,73,0.00,,,0.00,Wunderground v.1.15,2013-03-22 05:35:00,
2013-03-22 01:37:00,18.5,11.3,29.65,WNW,299,5.0,5.0,73,0.00,,,0.00,Wunderground v.1.15,2013-03-22 05:37:00,
2013-03-22 01:39:00,18.6,11.7,29.65,NW,310,0.0,5.0,74,0.00,,,0.00,Wunderground v.1.15,2013-03-22 05:39:00,
2013-03-22 01:41:00,18.6,11.7,29.65,West,269,3.0,3.0,74,0.00,,,0.00,Wunderground v.1.15,2013-03-22 05:41:00,
2013-03-22 01:44:00,18.7,11.5,29.65,WSW,249,2.0,4.0,73,0.00,,,0.00,Wunderground v.1.15,2013-03-22 05:44:00,
2013-03-22 01:45:00,18.7,11.5,29.65,SW,227,1.0,4.0,73,0.00,,,0.00,Wunderground v.1.15,2013-03-22 05:45:00,
2013-03-22 01:50:00,18.6,11.1,29.66,WNW,290,6.0,6.0,72,0.00,,,0.00,Wunderground v.1.15,2013-03-22 05:50:00,
2013-03-22 01:51:00,18.5,11.3,29.66,NW,304,0.0,6.0,73,0.00,,,0.00,Wunderground v.1.15,2013-03-22 05:51:00,
2013-03-22 01:52:00,18.5,11.3,29.66,WSW,257,0.0,6.0,73,0.00,,,0.00,Wunderground v.1.15,2013-03-22 05:52:00,
2013-03-22 01:53:00,18.4,11.2,29.66,WSW,257,0.0,6.0,73,0.00,,,0.00,Wunderground v.1.15,2013-03-22 05:53:00,
2013-03-22 01:57:00,18.3,11.1,29.66,NNW,327,1.0,6.0,73,0.00,,,0.00,Wunderground v.1.15,2013-03-22 05:57:00,
2013-03-22 01:58:00,18.3,11.1,29.65,NNW,334,1.0,6.0,73,0.00,,,0.00,Wunderground v.1.15,2013-03-22 05:58:00,
2013-03-22 02:01:00,18.2,11.0,29.65,West,272,0.0,2.0,73,0.00,,,0.00,Wunderground v.1.15,2013-03-22 06:01:00,
2013-03-22 02:02:00,18.2,11.0,29.65,West,272,0.0,2.0,73,0.00,,,0.00,Wunderground v.1.15,2013-03-22 06:02:00,
2013-03-22 02:03:00,18.2,11.0,29.65,SW,227,0.0,2.0,73,0.00,,,0.00,Wunderground v.1.15,2013-03-22 06:03:00,
2013-03-22 02:06:00,18.2,11.0,29.65,NW,319,2.0,7.0,73,0.00,,,0.00,Wunderground v.1.15,2013-03-22 06:06:00,
2013-03-22 02:07:00,18.2,11.0,29.65,NW,319,2.0,7.0,73,0.00,,,0.00,Wunderground v.1.15,2013-03-22 06:07:00,
2013-03-22 02:08:00,18.2,11.0,29.65,NW,315,4.0,9.0,73,0.00,,,0.00,Wunderground v.1.15,2013-03-22 06:08:00,
2013-03-22 02:11:00,18.4,11.2,29.66,West,262,3.0,3.0,73,0.00,,,0.00,Wunderground v.1.15,2013-03-22 06:11:00,
2013-03-22 02:12:00,18.4,11.2,29.65,NW,321,1.0,3.0,73,0.00,,,0.00,Wunderground v.1.15,2013-03-22 06:12:00,
2013-03-22 02:13:00,18.4,11.2,29.65,NW,311,2.0,3.0,73,0.00,,,0.00,Wunderground v.1.15,2013-03-22 06:13:00,
2013-03-22 02:14:00,18.4,11.2,29.65,West,261,3.0,3.0,73,0.00,,,0.00,Wunderground v.1.15,2013-03-22 06:14:00,
2013-03-22 02:17:00,18.3,11.1,29.65,NW,321,0.0,7.0,73,0.00,,,0.00,Wunderground v.1.15,2013-03-22 06:17:00,
2013-03-22 02:18:00,18.2,11.0,29.65,NW,309,2.0,7.0,73,0.00,,,0.00,Wunderground v.1.15,2013-03-22 06:18:00,
2013-03-22 02:19:00,18.2,11.0,29.65,NW,309,1.0,7.0,73,0.00,,,0.00,Wunderground v.1.15,2013-03-22 06:19:00,
2013-03-22 02:22:00,18.2,11.0,29.65,NW,309,0.0,2.0,73,0.00,,,0.00,Wunderground v.1.15,2013-03-22 06:22:00,
2013-03-22 02:23:00,18.2,11.0,29.65,NNW,327,0.0,2.0,73,0.00,,,0.00,Wunderground v.1.15,2013-03-22 06:23:00,
2013-03-22 02:24:00,18.2,11.0,29.65,WNW,288,3.0,4.0,73,0.00,,,0.00,Wunderground v.1.15,2013-03-22 06:24:00,
2013-03-22 02:25:00,18.2,11.0,29.65,West,269,3.0,4.0,73,0.00,,,0.00,Wunderground v.1.15,2013-03-22 06:25:00,
2013-03-22 02:28:00,18.2,11.0,29.65,West,274,1.0,4.0,73,0.00,,,0.00,Wunderground v.1.15,2013-03-22 06:28:00,
2013-03-22 02:29:00,18.3,11.1,29.65,NNW,337,3.0,4.0,73,0.00,,,0.00,Wunderground v.1.15,2013-03-22 06:29:00,
2013-03-22 02:30:00,18.3,11.1,29.65,WNW,300,2.0,4.0,73,0.00,,,0.00,Wunderground v.1.15,2013-03-22 06:30:00,
2013-03-22 02:33:00,18.2,11.0,29.65,WNW,301,0.0,3.0,73,0.00,,,0.00,Wunderground v.1.15,2013-03-22 06:33:00,
2013-03-22 02:34:00,18.1,10.9,29.65,WSW,249,2.0,3.0,73,0.00,,,0.00,Wunderground v.1.15,2013-03-22 06:34:00,
2013-03-22 02:35:00,18.2,11.0,29.65,West,265,4.0,4.0,73,0.00,,,0.00,Wunderground v.1.15,2013-03-22 06:35:00,
2013-03-22 02:38:00,18.1,10.9,29.65,NW,314,1.0,4.0,73,0.00,,,0.00,Wunderground v.1.15,2013-03-22 06:38:00,
2013-03-22 02:39:00,18.1,10.9,29.65,NW,304,0.0,4.0,73,0.00,,,0.00,Wunderground v.1.15,2013-03-22 06:39:00,
2013-03-22 02:40:00,18.1,10.9,29.65,NW,304,0.0,1.0,73,0.00,,,0.00,Wunderground v.1.15,2013-03-22 06:40:00,
2013-03-22 02:43:00,18.1,10.9,29.65,West,273,1.0,7.0,73,0.00,,,0.00,Wunderground v.1.15,2013-03-22 06:43:00,
2013-03-22 02:45:00,18.1,10.9,29.65,West,271,0.0,7.0,73,0.00,,,0.00,Wunderground v.1.15,2013-03-22 06:45:00,
2013-03-22 02:48:00,18.1,10.9,29.65,SW,225,0.0,7.0,73,0.00,,,0.00,Wunderground v.1.15,2013-03-22 06:48:00,
2013-03-22 02:50:00,18.0,10.8,29.65,NNW,327,0.0,1.0,73,0.00,,,0.00,Wunderground v.1.15,2013-03-22 06:50:00,
2013-03-22 02:53:00,17.9,10.7,29.65,NW,323,0.0,3.0,73,0.00,,,0.00,Wunderground v.1.15,2013-03-22 06:53:00,
2013-03-22 02:54:00,17.9,10.7,29.65,NW,323,0.0,3.0,73,0.00,,,0.00,Wunderground v.1.15,2013-03-22 06:54:00,
2013-03-22 02:56:00,17.9,11.0,29.65,NW,308,0.0,4.0,74,0.00,,,0.00,Wunderground v.1.15,2013-03-22 06:56:00,
2013-03-22 02:59:00,17.9,11.0,29.64,West,273,0.0,4.0,74,0.00,,,0.00,Wunderground v.1.15,2013-03-22 06:59:00,
2013-03-22 03:01:00,17.9,11.0,29.65,NW,305,2.0,2.0,74,0.00,,,0.00,Wunderground v.1.15,2013-03-22 07:01:00,
2013-03-22 03:02:00,17.9,11.0,29.64,NW,310,0.0,2.0,74,0.00,,,0.00,Wunderground v.1.15,2013-03-22 07:02:00,
2013-03-22 03:03:00,17.9,11.0,29.65,NW,311,0.0,2.0,74,0.00,,,0.00,Wunderground v.1.15,2013-03-22 07:03:00,
2013-03-22 03:04:00,17.9,11.0,29.64,NW,307,1.0,2.0,74,0.00,,,0.00,Wunderground v.1.15,2013-03-22 07:04:00,
2013-03-22 03:07:00,17.9,11.0,29.65,WNW,303,0.0,2.0,74,0.00,,,0.00,Wunderground v.1.15,2013-03-22 07:07:00,
2013-03-22 03:08:00,17.9,11.0,29.64,WNW,303,0.0,2.0,74,0.00,,,0.00,Wunderground v.1.15,2013-03-22 07:08:00,
2013-03-22 03:09:00,17.8,10.9,29.64,WNW,303,0.0,2.0,74,0.00,,,0.00,Wunderground v.1.15,2013-03-22 07:09:00,
2013-03-22 03:12:00,17.8,10.9,29.64,WNW,298,0.0,2.0,74,0.00,,,0.00,Wunderground v.1.15,2013-03-22 07:12:00,
2013-03-22 03:13:00,17.8,10.9,29.64,WNW,298,0.0,2.0,74,0.00,,,0.00,Wunderground v.1.15,2013-03-22 07:13:00,
2013-03-22 03:14:00,17.8,10.9,29.64,WNW,298,0.0,2.0,74,0.00,,,0.00,Wunderground v.1.15,2013-03-22 07:14:00,
2013-03-22 03:17:00,17.8,10.9,29.65,WNW,295,0.0,7.0,74,0.00,,,0.00,Wunderground v.1.15,2013-03-22 07:17:00,
2013-03-22 03:18:00,17.8,11.2,29.65,West,279,0.0,7.0,75,0.00,,,0.00,Wunderground v.1.15,2013-03-22 07:18:00,
2013-03-22 03:19:00,17.8,10.9,29.65,West,279,0.0,7.0,74,0.00,,,0.00,Wunderground v.1.15,2013-03-22 07:19:00,
2013-03-22 03:22:00,17.8,10.9,29.65,North,9,3.0,3.0,74,0.00,,,0.00,Wunderground v.1.15,2013-03-22 07:22:00,
2013-03-22 03:24:00,17.8,11.2,29.65,NNW,348,1.0,3.0,75,0.00,,,0.00,Wunderground v.1.15,2013-03-22 07:24:00,
2013-03-22 03:27:00,17.7,11.1,29.64,WNW,301,0.0,3.0,75,0.00,,,0.00,Wunderground v.1.15,2013-03-22 07:27:00,
2013-03-22 03:29:00,17.7,11.1,29.65,WNW,296,0.0,3.0,75,0.00,,,0.00,Wunderground v.1.15,2013-03-22 07:29:00,
2013-03-22 03:33:00,17.6,11.0,29.65,WNW,301,0.0,3.0,75,0.00,,,0.00,Wunderground v.1.15,2013-03-22 07:33:00,
2013-03-22 03:34:00,17.6,11.0,29.65,WNW,301,0.0,3.0,75,0.00,,,0.00,Wunderground v.1.15,2013-03-22 07:34:00,
2013-03-22 03:35:00,17.6,11.0,29.64,WNW,301,0.0,3.0,75,0.00,,,0.00,Wunderground v.1.15,2013-03-22 07:35:00,
2013-03-22 03:38:00,17.6,11.3,29.64,NW,306,0.0,4.0,76,0.00,,,0.00,Wunderground v.1.15,2013-03-22 07:38:00,
2013-03-22 03:39:00,17.6,11.3,29.64,NNW,333,0.0,4.0,76,0.00,,,0.00,Wunderground v.1.15,2013-03-22 07:39:00,
2013-03-22 03:40:00,17.6,11.3,29.64,NNW,333,2.0,4.0,76,0.00,,,0.00,Wunderground v.1.15,2013-03-22 07:40:00,
2013-03-22 03:43:00,17.6,11.3,29.64,NNW,336,2.0,2.0,76,0.00,,,0.00,Wunderground v.1.15,2013-03-22 07:43:00,
2013-03-22 03:45:00,17.5,11.2,29.64,NW,308,2.0,3.0,76,0.00,,,0.00,Wunderground v.1.15,2013-03-22 07:45:00,
2013-03-22 03:48:00,17.5,11.2,29.64,WNW,302,0.0,3.0,76,0.00,,,0.00,Wunderground v.1.15,2013-03-22 07:48:00,
2013-03-22 03:50:00,17.4,11.1,29.64,WNW,296,0.0,3.0,76,0.00,,,0.00,Wunderground v.1.15,2013-03-22 07:50:00,
2013-03-22 03:54:00,17.3,11.3,29.64,West,278,0.0,1.0,77,0.00,,,0.00,Wunderground v.1.15,2013-03-22 07:54:00,
2013-03-22 03:55:00,17.3,11.3,29.64,West,277,0.0,1.0,77,0.00,,,0.00,Wunderground v.1.15,2013-03-22 07:55:00,
2013-03-22 03:59:00,17.2,11.2,29.64,WNW,285,0.0,3.0,77,0.00,,,0.00,Wunderground v.1.15,2013-03-22 07:59:00,
2013-03-22 04:00:00,17.3,11.3,29.64,North,355,0.0,0.0,77,0.00,,,0.00,Wunderground v.1.15,2013-03-22 08:00:00,
2013-03-22 04:04:00,17.2,11.2,29.64,NW,314,2.0,4.0,77,0.00,,,0.00,Wunderground v.1.15,2013-03-22 08:04:00,
2013-03-22 04:05:00,17.3,11.3,29.64,WNW,284,0.0,4.0,77,0.00,,,0.00,Wunderground v.1.15,2013-03-22 08:05:00,
2013-03-22 04:06:00,17.3,11.3,29.64,West,268,0.0,4.0,77,0.00,,,0.00,Wunderground v.1.15,2013-03-22 08:06:00,
2013-03-22 04:09:00,17.3,11.3,29.64,NW,318,0.0,4.0,77,0.00,,,0.00,Wunderground v.1.15,2013-03-22 08:09:00,
2013-03-22 04:10:00,17.3,11.3,29.64,West,271,0.0,2.0,77,0.00,,,0.00,Wunderground v.1.15,2013-03-22 08:10:00,
2013-03-22 04:11:00,17.3,11.3,29.64,WSW,245,2.0,2.0,77,0.00,,,0.00,Wunderground v.1.15,2013-03-22 08:11:00,
2013-03-22 04:13:00,17.3,11.6,29.64,NW,314,0.0,2.0,78,0.00,,,0.00,Wunderground v.1.15,2013-03-22 08:13:00,
2013-03-22 04:14:00,17.4,11.7,29.64,West,278,3.0,3.0,78,0.00,,,0.00,Wunderground v.1.15,2013-03-22 08:14:00,
2013-03-22 04:16:00,17.4,11.7,29.64,WNW,289,0.0,5.0,78,0.00,,,0.00,Wunderground v.1.15,2013-03-22 08:16:00,
2013-03-22 04:18:00,17.4,11.7,29.64,WNW,289,0.0,5.0,78,0.00,,,0.00,Wunderground v.1.15,2013-03-22 08:18:00,
2013-03-22 04:20:00,17.3,11.3,29.64,West,276,0.0,5.0,77,0.00,,,0.00,Wunderground v.1.15,2013-03-22 08:20:00,
2013-03-22 04:22:00,17.2,11.2,29.64,West,264,0.0,2.0,77,0.00,,,0.00,Wunderground v.1.15,2013-03-22 08:22:00,
2013-03-22 04:23:00,17.1,11.1,29.64,West,267,0.0,2.0,77,0.00,,,0.00,Wunderground v.1.15,2013-03-22 08:23:00,
2013-03-22 04:25:00,17.1,11.1,29.64,WNW,292,0.0,2.0,77,0.00,,,0.00,Wunderground v.1.15,2013-03-22 08:25:00,
2013-03-22 04:27:00,16.9,11.2,29.64,West,267,0.0,3.0,78,0.00,,,0.00,Wunderground v.1.15,2013-03-22 08:27:00,
2013-03-22 04:28:00,16.8,11.1,29.64,West,266,0.0,3.0,78,0.00,,,0.00,Wunderground v.1.15,2013-03-22 08:28:00,
2013-03-22 04:30:00,16.8,11.1,29.64,West,266,0.0,3.0,78,0.00,,,0.00,Wunderground v.1.15,2013-03-22 08:30:00,
2013-03-22 04:32:00,16.7,11.0,29.64,NW,309,0.0,2.0,78,0.00,,,0.00,Wunderground v.1.15,2013-03-22 08:32:00,
2013-03-22 04:34:00,16.7,11.3,29.64,WNW,289,0.0,4.0,79,0.00,,,0.00,Wunderground v.1.15,2013-03-22 08:34:00,
2013-03-22 04:35:00,16.7,11.3,29.64,WNW,289,0.0,4.0,79,0.00,,,0.00,Wunderground v.1.15,2013-03-22 08:35:00,
2013-03-22 04:37:00,16.8,11.4,29.64,WNW,291,2.0,4.0,79,0.00,,,0.00,Wunderground v.1.15,2013-03-22 08:37:00,
2013-03-22 04:39:00,16.8,11.4,29.64,WNW,290,0.0,4.0,79,0.00,,,0.00,Wunderground v.1.15,2013-03-22 08:39:00,
2013-03-22 04:40:00,16.8,11.4,29.64,WNW,290,0.0,1.0,79,0.00,,,0.00,Wunderground v.1.15,2013-03-22 08:40:00,
2013-03-22 04:42:00,16.8,11.4,29.64,WNW,289,0.0,1.0,79,0.00,,,0.00,Wunderground v.1.15,2013-03-22 08:42:00,
2013-03-22 04:43:00,16.7,11.3,29.64,West,278,0.0,1.0,79,0.00,,,0.00,Wunderground v.1.15,2013-03-22 08:43:00,
2013-03-22 04:44:00,16.8,11.4,29.64,NNE,26,0.0,3.0,79,0.00,,,0.00,Wunderground v.1.15,2013-03-22 08:44:00,
2013-03-22 04:45:00,16.8,11.4,29.64,WNW,288,2.0,3.0,79,0.00,,,0.00,Wunderground v.1.15,2013-03-22 08:45:00,
2013-03-22 04:47:00,16.8,11.4,29.64,NW,315,0.0,3.0,79,0.00,,,0.00,Wunderground v.1.15,2013-03-22 08:47:00,
2013-03-22 04:48:00,16.8,11.4,29.64,WNW,292,2.0,4.0,79,0.00,,,0.00,Wunderground v.1.15,2013-03-22 08:48:00,
2013-03-22 04:49:00,16.8,11.4,29.64,WNW,292,0.0,4.0,79,0.00,,,0.00,Wunderground v.1.15,2013-03-22 08:49:00,
2013-03-22 04:51:00,16.8,11.4,29.64,NW,308,1.0,3.0,79,0.00,,,0.00,Wunderground v.1.15,2013-03-22 08:51:00,
2013-03-22 04:52:00,16.7,11.3,29.64,NW,314,0.0,3.0,79,0.00,,,0.00,Wunderground v.1.15,2013-03-22 08:52:00,
2013-03-22 04:53:00,16.7,11.3,29.64,WNW,292,0.0,4.0,79,0.00,,,0.00,Wunderground v.1.15,2013-03-22 08:53:00,
2013-03-22 04:54:00,16.7,11.3,29.64,NW,315,3.0,4.0,79,0.00,,,0.00,Wunderground v.1.15,2013-03-22 08:54:00,
2013-03-22 04:56:00,16.7,11.3,29.64,WNW,289,1.0,4.0,79,0.00,,,0.00,Wunderground v.1.15,2013-03-22 08:56:00,
2013-03-22 04:58:00,16.7,11.6,29.64,NW,306,3.0,4.0,80,0.00,,,0.00,Wunderground v.1.15,2013-03-22 08:58:00,
2013-03-22 05:00:00,16.7,11.6,29.64,NW,304,0.0,1.0,80,0.00,,,0.00,Wunderground v.1.15,2013-03-22 09:00:00,
2013-03-22 05:01:00,16.7,11.6,29.64,WNW,296,0.0,1.0,80,0.00,,,0.00,Wunderground v.1.15,2013-03-22 09:01:00,
2013-03-22 05:04:00,16.7,11.6,29.64,West,265,0.0,2.0,80,0.00,,,0.00,Wunderground v.1.15,2013-03-22 09:04:00,
2013-03-22 05:05:00,16.7,11.3,29.64,West,268,0.0,2.0,79,0.00,,,0.00,Wunderground v.1.15,2013-03-22 09:05:00,
2013-03-22 05:08:00,16.6,11.5,29.64,West,263,0.0,3.0,80,0.00,,,0.00,Wunderground v.1.15,2013-03-22 09:08:00,
2013-03-22 05:09:00,16.5,11.4,29.64,West,263,0.0,3.0,80,0.00,,,0.00,Wunderground v.1.15,2013-03-22 09:09:00,
2013-03-22 05:10:00,16.5,11.4,29.64,West,263,0.0,0.0,80,0.00,,,0.00,Wunderground v.1.15,2013-03-22 09:10:00,
2013-03-22 05:13:00,16.4,11.3,29.64,West,276,0.0,3.0,80,0.00,,,0.00,Wunderground v.1.15,2013-03-22 09:13:00,
2013-03-22 05:14:00,16.4,11.3,29.64,West,276,0.0,3.0,80,0.00,,,0.00,Wunderground v.1.15,2013-03-22 09:14:00,
2013-03-22 05:16:00,16.3,11.2,29.64,WSW,238,4.0,4.0,80,0.00,,,0.00,Wunderground v.1.15,2013-03-22 09:16:00,
2013-03-22 05:18:00,16.3,11.2,29.64,WSW,246,0.0,4.0,80,0.00,,,0.00,Wunderground v.1.15,2013-03-22 09:18:00,
2013-03-22 05:19:00,16.2,11.1,29.64,WSW,246,0.0,4.0,80,0.00,,,0.00,Wunderground v.1.15,2013-03-22 09:19:00,
2013-03-22 05:21:00,16.2,11.1,29.64,WSW,253,2.0,3.0,80,0.00,,,0.00,Wunderground v.1.15,2013-03-22 09:21:00,
2013-03-22 05:24:00,16.1,11.0,29.64,SW,223,0.0,5.0,80,0.00,,,0.00,Wunderground v.1.15,2013-03-22 09:24:00,
2013-03-22 05:27:00,15.8,10.7,29.64,SW,227,0.0,5.0,80,0.00,,,0.00,Wunderground v.1.15,2013-03-22 09:27:00,
2013-03-22 05:29:00,15.7,10.9,29.64,WSW,242,0.0,5.0,81,0.00,,,0.00,Wunderground v.1.15,2013-03-22 09:29:00,
2013-03-22 05:33:00,15.6,10.8,29.64,West,260,0.0,2.0,81,0.00,,,0.00,Wunderground v.1.15,2013-03-22 09:33:00,
2013-03-22 05:34:00,15.5,10.7,29.64,WSW,245,0.0,2.0,81,0.00,,,0.00,Wunderground v.1.15,2013-03-22 09:34:00,
2013-03-22 05:35:00,15.5,10.7,29.64,WSW,246,1.0,2.0,81,0.00,,,0.00,Wunderground v.1.15,2013-03-22 09:35:00,
2013-03-22 05:38:00,15.4,10.9,29.64,WSW,238,2.0,4.0,82,0.00,,,0.00,Wunderground v.1.15,2013-03-22 09:38:00,
2013-03-22 05:39:00,15.4,10.9,29.64,SW,225,1.0,4.0,82,0.00,,,0.00,Wunderground v.1.15,2013-03-22 09:39:00,
2013-03-22 05:40:00,15.4,10.9,29.64,SW,225,0.0,1.0,82,0.00,,,0.00,Wunderground v.1.15,2013-03-22 09:40:00,
2013-03-22 05:44:00,15.2,10.7,29.64,SW,225,0.0,2.0,82,0.00,,,0.00,Wunderground v.1.15,2013-03-22 09:44:00,
2013-03-22 05:45:00,15.2,10.7,29.64,SW,225,0.0,3.0,82,0.00,,,0.00,Wunderground v.1.15,2013-03-22 09:45:00,
2013-03-22 05:46:00,15.2,10.7,29.64,SW,227,0.0,3.0,82,0.00,,,0.00,Wunderground v.1.15,2013-03-22 09:46:00,
2013-03-22 05:49:00,15.0,10.5,29.64,West,262,0.0,3.0,82,0.00,,,0.00,Wunderground v.1.15,2013-03-22 09:49:00,
2013-03-22 05:50:00,15.0,10.5,29.64,WSW,248,0.0,2.0,82,0.00,,,0.00,Wunderground v.1.15,2013-03-22 09:50:00,
2013-03-22 05:51:00,15.0,10.5,29.64,WSW,238,0.0,2.0,82,0.00,,,0.00,Wunderground v.1.15,2013-03-22 09:51:00,
2013-03-22 05:54:00,14.9,10.7,29.64,WSW,252,0.0,2.0,83,0.00,,,0.00,Wunderground v.1.15,2013-03-22 09:54:00,
2013-03-22 05:55:00,14.9,10.7,29.64,WSW,252,0.0,2.0,83,0.00,,,0.00,Wunderground v.1.15,2013-03-22 09:55:00,
2013-03-22 05:56:00,14.9,10.7,29.64,SW,234,0.0,2.0,83,0.00,,,0.00,Wunderground v.1.15,2013-03-22 09:56:00,
2013-03-22 05:59:00,15.3,11.3,29.64,West,259,2.0,3.0,84,0.00,,,0.00,Wunderground v.1.15,2013-03-22 09:59:00,
2013-03-22 06:00:00,15.3,11.3,29.64,West,259,2.0,3.0,84,0.00,,,0.00,Wunderground v.1.15,2013-03-22 10:00:00,
2013-03-22 06:03:00,16.1,11.8,29.64,WNW,288,0.0,5.0,83,0.00,,,0.00,Wunderground v.1.15,2013-03-22 10:03:00,
2013-03-22 06:05:00,16.3,12.0,29.64,West,272,2.0,5.0,83,0.00,,,0.00,Wunderground v.1.15,2013-03-22 10:05:00,
2013-03-22 06:06:00,16.3,11.8,29.64,WNW,301,0.0,5.0,82,0.00,,,0.00,Wunderground v.1.15,2013-03-22 10:06:00,
2013-03-22 06:08:00,16.3,11.5,29.64,WNW,301,0.0,5.0,81,0.00,,,0.00,Wunderground v.1.15,2013-03-22 10:08:00,
2013-03-22 06:10:00,16.3,11.5,29.64,WNW,284,1.0,5.0,81,0.00,,,0.00,Wunderground v.1.15,2013-03-22 10:10:00,
2013-03-22 06:12:00,16.4,11.6,29.64,West,260,0.0,3.0,81,0.00,,,0.00,Wunderground v.1.15,2013-03-22 10:12:00,
2013-03-22 06:13:00,16.4,11.6,29.64,NW,304,0.0,3.0,81,0.00,,,0.00,Wunderground v.1.15,2013-03-22 10:13:00,
2013-03-22 06:16:00,16.4,11.6,29.64,WNW,283,0.0,3.0,81,0.00,,,0.00,Wunderground v.1.15,2013-03-22 10:16:00,
2013-03-22 06:17:00,16.4,11.6,29.64,West,277,0.0,3.0,81,0.00,,,0.00,Wunderground v.1.15,2013-03-22 10:17:00,
2013-03-22 06:19:00,16.4,11.6,29.64,West,279,0.0,3.0,81,0.00,,,0.00,Wunderground v.1.15,2013-03-22 10:19:00,
2013-03-22 06:22:00,16.4,11.6,29.64,NW,306,0.0,2.0,81,0.00,,,0.00,Wunderground v.1.15,2013-03-22 10:22:00,
2013-03-22 06:23:00,16.5,11.7,29.64,NW,324,0.0,5.0,81,0.00,,,0.00,Wunderground v.1.15,2013-03-22 10:23:00,
2013-03-22 06:24:00,16.5,11.7,29.65,NNW,329,0.0,5.0,81,0.00,,,0.00,Wunderground v.1.15,2013-03-22 10:24:00,
2013-03-22 06:27:00,16.6,11.8,29.65,West,264,0.0,5.0,81,0.00,,,0.00,Wunderground v.1.15,2013-03-22 10:27:00,
2013-03-22 06:28:00,16.7,11.9,29.65,West,264,0.0,5.0,81,0.00,,,0.00,Wunderground v.1.15,2013-03-22 10:28:00,
2013-03-22 06:29:00,16.7,11.9,29.64,West,263,1.0,5.0,81,0.00,,,0.00,Wunderground v.1.15,2013-03-22 10:29:00,
2013-03-22 06:32:00,16.7,11.6,29.65,WSW,250,2.0,4.0,80,0.00,,,0.00,Wunderground v.1.15,2013-03-22 10:32:00,
2013-03-22 06:33:00,16.7,11.6,29.65,SSW,211,0.0,4.0,80,0.00,,,0.00,Wunderground v.1.15,2013-03-22 10:33:00,
2013-03-22 06:34:00,16.7,11.9,29.64,WNW,296,0.0,4.0,81,0.00,,,0.00,Wunderground v.1.15,2013-03-22 10:34:00,
2013-03-22 06:37:00,16.8,11.7,29.64,West,281,0.0,4.0,80,0.00,,,0.00,Wunderground v.1.15,2013-03-22 10:37:00,
2013-03-22 06:38:00,16.8,11.7,29.64,West,281,0.0,4.0,80,0.00,,,0.00,Wunderground v.1.15,2013-03-22 10:38:00,
2013-03-22 06:40:00,16.7,11.6,29.64,West,281,0.0,4.0,80,0.00,,,0.00,Wunderground v.1.15,2013-03-22 10:40:00,
2013-03-22 06:42:00,16.7,11.6,29.64,West,281,0.0,0.0,80,0.00,,,0.00,Wunderground v.1.15,2013-03-22 10:42:00,
2013-03-22 06:43:00,16.7,11.6,29.64,West,281,0.0,0.0,80,0.00,,,0.00,Wunderground v.1.15,2013-03-22 10:43:00,
2013-03-22 06:44:00,16.7,11.6,29.65,West,281,0.0,0.0,80,0.00,,,0.00,Wunderground v.1.15,2013-03-22 10:44:00,
2013-03-22 06:45:00,16.6,11.5,29.64,SW,234,2.0,2.0,80,0.00,,,0.00,Wunderground v.1.15,2013-03-22 10:45:00,
2013-03-22 06:47:00,16.6,11.8,29.65,NNW,333,0.0,2.0,81,0.00,,,0.00,Wunderground v.1.15,2013-03-22 10:47:00,
2013-03-22 06:48:00,16.6,11.8,29.64,NNW,333,0.0,2.0,81,0.00,,,0.00,Wunderground v.1.15,2013-03-22 10:48:00,
2013-03-22 06:49:00,16.6,11.8,29.65,NNW,333,0.0,2.0,81,0.00,,,0.00,Wunderground v.1.15,2013-03-22 10:49:00,
2013-03-22 06:50:00,16.7,11.9,29.65,WNW,292,0.0,0.0,81,0.00,,,0.00,Wunderground v.1.15,2013-03-22 10:50:00,
2013-03-22 06:53:00,16.6,11.8,29.65,WNW,288,0.0,1.0,81,0.00,,,0.00,Wunderground v.1.15,2013-03-22 10:53:00,
2013-03-22 06:54:00,16.6,11.8,29.64,WNW,288,0.0,1.0,81,0.00,,,0.00,Wunderground v.1.15,2013-03-22 10:54:00,
2013-03-22 06:55:00,16.7,11.9,29.64,WNW,288,0.0,1.0,81,0.00,,,0.00,Wunderground v.1.15,2013-03-22 10:55:00,
2013-03-22 06:58:00,16.7,11.9,29.65,WNW,288,0.0,1.0,81,0.00,,,0.00,Wunderground v.1.15,2013-03-22 10:58:00,
2013-03-22 06:59:00,16.7,11.9,29.64,WNW,288,0.0,1.0,81,0.00,,,0.00,Wunderground v.1.15,2013-03-22 10:59:00,
2013-03-22 07:00:00,16.7,11.9,29.64,WNW,288,0.0,0.0,81,0.00,,,0.00,Wunderground v.1.15,2013-03-22 11:00:00,
2013-03-22 07:03:00,16.7,11.9,29.64,WNW,288,0.0,0.0,81,0.00,,,0.00,Wunderground v.1.15,2013-03-22 11:03:00,
2013-03-22 07:04:00,16.7,11.9,29.64,WNW,288,0.0,0.0,81,0.00,,,0.00,Wunderground v.1.15,2013-03-22 11:04:00,
2013-03-22 07:05:00,16.7,11.9,29.64,WNW,288,0.0,1.0,81,0.00,,,0.00,Wunderground v.1.15,2013-03-22 11:05:00,
2013-03-22 07:08:00,16.7,12.2,29.64,NW,317,0.0,2.0,82,0.00,,,0.00,Wunderground v.1.15,2013-03-22 11:08:00,
2013-03-22 07:09:00,16.7,12.2,29.64,NW,317,0.0,2.0,82,0.00,,,0.00,Wunderground v.1.15,2013-03-22 11:09:00,
2013-03-22 07:11:00,16.7,12.2,29.65,NW,322,0.0,1.0,82,0.00,,,0.00,Wunderground v.1.15,2013-03-22 11:11:00,
2013-03-22 07:13:00,16.7,12.2,29.65,NW,316,0.0,2.0,82,0.00,,,0.00,Wunderground v.1.15,2013-03-22 11:13:00,
2013-03-22 07:14:00,16.7,12.2,29.65,NNW,327,2.0,3.0,82,0.00,,,0.00,Wunderground v.1.15,2013-03-22 11:14:00,
2013-03-22 07:16:00,16.8,12.5,29.65,North,355,4.0,4.0,83,0.00,,,0.00,Wunderground v.1.15,2013-03-22 11:16:00,
2013-03-22 07:18:00,16.8,12.5,29.65,WNW,284,1.0,5.0,83,0.00,,,0.00,Wunderground v.1.15,2013-03-22 11:18:00,
2013-03-22 07:19:00,16.9,12.6,29.65,NW,318,0.0,5.0,83,0.00,,,0.00,Wunderground v.1.15,2013-03-22 11:19:00,
2013-03-22 07:22:00,17.0,12.7,29.65,North,350,1.0,2.0,83,0.00,,,0.00,Wunderground v.1.15,2013-03-22 11:22:00,
2013-03-22 07:23:00,17.0,12.7,29.65,North,350,1.0,2.0,83,0.00,,,0.00,Wunderground v.1.15,2013-03-22 11:23:00,
2013-03-22 07:24:00,17.1,12.8,29.65,North,355,3.0,3.0,83,0.00,,,0.00,Wunderground v.1.15,2013-03-22 11:24:00,
2013-03-22 07:27:00,17.2,12.9,29.65,NW,316,1.0,3.0,83,0.00,,,0.00,Wunderground v.1.15,2013-03-22 11:27:00,
2013-03-22 07:29:00,17.2,12.9,29.65,WNW,285,0.0,3.0,83,0.00,,,0.00,Wunderground v.1.15,2013-03-22 11:29:00,
2013-03-22 07:33:00,17.2,12.9,29.65,West,264,0.0,3.0,83,0.00,,,0.00,Wunderground v.1.15,2013-03-22 11:33:00,
2013-03-22 07:34:00,17.2,12.9,29.65,NNW,327,0.0,3.0,83,0.00,,,0.00,Wunderground v.1.15,2013-03-22 11:34:00,
2013-03-22 07:35:00,17.3,13.0,29.65,NNW,327,0.0,3.0,83,0.00,,,0.00,Wunderground v.1.15,2013-03-22 11:35:00,
2013-03-22 07:38:00,17.3,13.0,29.65,WNW,294,0.0,3.0,83,0.00,,,0.00,Wunderground v.1.15,2013-03-22 11:38:00,
2013-03-22 07:39:00,17.4,13.1,29.65,WNW,294,0.0,3.0,83,0.00,,,0.00,Wunderground v.1.15,2013-03-22 11:39:00,
2013-03-22 07:40:00,17.4,13.1,29.65,WNW,294,1.0,2.0,83,0.00,,,0.00,Wunderground v.1.15,2013-03-22 11:40:00,
2013-03-22 07:43:00,17.5,13.5,29.66,NW,321,2.0,2.0,84,0.00,,,0.00,Wunderground v.1.15,2013-03-22 11:43:00,
2013-03-22 07:45:00,17.5,13.2,29.65,NW,319,0.0,2.0,83,0.00,,,0.00,Wunderground v.1.15,2013-03-22 11:45:00,
2013-03-22 07:47:00,17.6,13.3,29.66,West,264,0.0,2.0,83,0.00,,,0.00,Wunderground v.1.15,2013-03-22 11:47:00,
2013-03-22 07:49:00,17.6,13.3,29.66,West,264,0.0,2.0,83,0.00,,,0.00,Wunderground v.1.15,2013-03-22 11:49:00,
2013-03-22 07:50:00,17.6,13.3,29.66,West,264,0.0,0.0,83,0.00,,,0.00,Wunderground v.1.15,2013-03-22 11:50:00,
2013-03-22 07:52:00,17.6,13.3,29.66,North,5,3.0,3.0,83,0.00,,,0.00,Wunderground v.1.15,2013-03-22 11:52:00,
2013-03-22 07:54:00,17.6,13.3,29.66,WSW,241,0.0,4.0,83,0.00,,,0.00,Wunderground v.1.15,2013-03-22 11:54:00,
2013-03-22 07:55:00,17.6,13.3,29.66,WSW,241,0.0,4.0,83,0.00,,,0.00,Wunderground v.1.15,2013-03-22 11:55:00,
2013-03-22 07:58:00,17.7,13.4,29.66,NNW,340,3.0,6.0,83,0.00,,,0.00,Wunderground v.1.15,2013-03-22 11:58:00,
2013-03-22 08:00:00,17.9,13.6,29.66,West,278,1.0,6.0,83,0.00,,,0.00,Wunderground v.1.15,2013-03-22 12:00:00,
2013-03-22 08:03:00,17.9,13.6,29.66,NNW,336,1.0,2.0,83,0.00,,,0.00,Wunderground v.1.15,2013-03-22 12:03:00,
2013-03-22 08:05:00,18.0,13.7,29.66,West,266,2.0,3.0,83,0.00,,,0.00,Wunderground v.1.15,2013-03-22 12:05:00,
2013-03-22 08:06:00,18.0,13.7,29.66,West,278,3.0,4.0,83,0.00,,,0.00,Wunderground v.1.15,2013-03-22 12:06:00,
2013-03-22 08:08:00,18.2,13.9,29.66,WNW,290,1.0,4.0,83,0.00,,,0.00,Wunderground v.1.15,2013-03-22 12:08:00,
2013-03-22 08:10:00,18.3,14.0,29.66,WNW,284,2.0,2.0,83,0.00,,,0.00,Wunderground v.1.15,2013-03-22 12:10:00,
2013-03-22 08:11:00,18.4,14.1,29.66,SSW,204,1.0,2.0,83,0.00,,,0.00,Wunderground v.1.15,2013-03-22 12:11:00,
2013-03-22 08:13:00,18.4,14.1,29.66,West,274,0.0,3.0,83,0.00,,,0.00,Wunderground v.1.15,2013-03-22 12:13:00,
2013-03-22 08:15:00,18.4,13.8,29.66,NW,317,2.0,4.0,82,0.00,,,0.00,Wunderground v.1.15,2013-03-22 12:15:00,
2013-03-22 08:16:00,18.5,13.9,29.66,WSW,239,3.0,4.0,82,0.00,,,0.00,Wunderground v.1.15,2013-03-22 12:16:00,
2013-03-22 08:17:00,18.5,14.2,29.66,WNW,294,1.0,4.0,83,0.00,,,0.00,Wunderground v.1.15,2013-03-22 12:17:00,
2013-03-22 08:18:00,18.6,14.3,29.66,WNW,294,0.0,4.0,83,0.00,,,0.00,Wunderground v.1.15,2013-03-22 12:18:00,
2013-03-22 08:20:00,18.6,14.0,29.66,WNW,294,0.0,1.0,82,0.00,,,0.00,Wunderground v.1.15,2013-03-22 12:20:00,
2013-03-22 08:21:00,18.6,14.0,29.66,WNW,294,0.0,1.0,82,0.00,,,0.00,Wunderground v.1.15,2013-03-22 12:21:00,
2013-03-22 08:22:00,18.6,14.0,29.66,WSW,244,0.0,2.0,82,0.00,,,0.00,Wunderground v.1.15,2013-03-22 12:22:00,
2013-03-22 08:23:00,18.6,14.0,29.66,WSW,258,0.0,2.0,82,0.00,,,0.00,Wunderground v.1.15,2013-03-22 12:23:00,
2013-03-22 08:25:00,18.7,14.1,29.66,West,259,0.0,2.0,82,0.00,,,0.00,Wunderground v.1.15,2013-03-22 12:25:00,
2013-03-22 08:26:00,18.7,14.1,29.66,WNW,287,1.0,2.0,82,0.00,,,0.00,Wunderground v.1.15,2013-03-22 12:26:00,
2013-03-22 08:27:00,18.7,14.1,29.66,WNW,291,0.0,2.0,82,0.00,,,0.00,Wunderground v.1.15,2013-03-22 12:27:00,
2013-03-22 08:28:00,18.7,14.1,29.66,WNW,291,0.0,2.0,82,0.00,,,0.00,Wunderground v.1.15,2013-03-22 12:28:00,
2013-03-22 08:30:00,18.7,14.1,29.66,West,260,0.0,2.0,82,0.00,,,0.00,Wunderground v.1.15,2013-03-22 12:30:00,
2013-03-22 08:32:00,18.7,14.1,29.66,WSW,249,0.0,4.0,82,0.00,,,0.00,Wunderground v.1.15,2013-03-22 12:32:00,
2013-03-22 08:33:00,18.7,14.1,29.67,WSW,252,0.0,4.0,82,0.00,,,0.00,Wunderground v.1.15,2013-03-22 12:33:00,
2013-03-22 08:35:00,18.7,14.1,29.66,WSW,255,4.0,4.0,82,0.00,,,0.00,Wunderground v.1.15,2013-03-22 12:35:00,
2013-03-22 08:38:00,18.8,14.2,29.66,WSW,244,1.0,4.0,82,0.00,,,0.00,Wunderground v.1.15,2013-03-22 12:38:00,
2013-03-22 08:39:00,18.8,14.2,29.67,WSW,258,0.0,4.0,82,0.00,,,0.00,Wunderground v.1.15,2013-03-22 12:39:00,
2013-03-22 08:40:00,18.9,14.3,29.67,West,279,2.0,2.0,82,0.00,,,0.00,Wunderground v.1.15,2013-03-22 12:40:00,
2013-03-22 08:43:00,18.9,14.3,29.67,WSW,258,0.0,3.0,82,0.00,,,0.00,Wunderground v.1.15,2013-03-22 12:43:00,
2013-03-22 08:44:00,18.9,14.3,29.66,WSW,257,0.0,3.0,82,0.00,,,0.00,Wunderground v.1.15,2013-03-22 12:44:00,
2013-03-22 08:45:00,18.9,14.3,29.67,West,267,0.0,4.0,82,0.00,,,0.00,Wunderground v.1.15,2013-03-22 12:45:00,
2013-03-22 08:48:00,19.0,14.4,29.67,West,267,0.0,4.0,82,0.00,,,0.00,Wunderground v.1.15,2013-03-22 12:48:00,
2013-03-22 08:49:00,19.0,14.4,29.67,West,265,0.0,4.0,82,0.00,,,0.00,Wunderground v.1.15,2013-03-22 12:49:00,
2013-03-22 08:51:00,19.1,14.5,29.67,West,268,1.0,3.0,82,0.00,,,0.00,Wunderground v.1.15,2013-03-22 12:51:00,
2013-03-22 08:53:00,19.2,14.6,29.67,West,270,0.0,3.0,82,0.00,,,0.00,Wunderground v.1.15,2013-03-22 12:53:00,
2013-03-22 08:54:00,19.3,14.7,29.67,West,270,0.0,3.0,82,0.00,,,0.00,Wunderground v.1.15,2013-03-22 12:54:00,
2013-03-22 08:56:00,19.4,14.8,29.67,WNW,283,0.0,4.0,82,0.00,,,0.00,Wunderground v.1.15,2013-03-22 12:56:00,
2013-03-22 08:58:00,19.7,15.1,29.67,WNW,285,1.0,4.0,82,0.00,,,0.00,Wunderground v.1.15,2013-03-22 12:58:00,
2013-03-22 08:59:00,19.8,15.2,29.67,WNW,283,1.0,4.0,82,0.00,,,0.00,Wunderground v.1.15,2013-03-22 12:59:00,
2013-03-22 09:00:00,19.9,15.3,29.67,WNW,283,1.0,1.0,82,0.00,,,0.00,Wunderground v.1.15,2013-03-22 13:00:00,
2013-03-22 09:01:00,20.1,15.5,29.67,West,263,1.0,2.0,82,0.00,,,0.00,Wunderground v.1.15,2013-03-22 13:01:00,
2013-03-22 09:03:00,20.2,15.6,29.67,West,265,0.0,3.0,82,0.00,,,0.00,Wunderground v.1.15,2013-03-22 13:03:00,
2013-03-22 09:04:00,20.4,15.5,29.67,West,279,2.0,3.0,81,0.00,,,0.00,Wunderground v.1.15,2013-03-22 13:04:00,
2013-03-22 09:05:00,20.4,15.5,29.67,SW,234,3.0,3.0,81,0.00,,,0.00,Wunderground v.1.15,2013-03-22 13:05:00,
2013-03-22 09:07:00,20.6,15.7,29.67,West,261,3.0,5.0,81,0.00,,,0.00,Wunderground v.1.15,2013-03-22 13:07:00,
2013-03-22 09:08:00,20.6,15.7,29.67,SSW,207,2.0,5.0,81,0.00,,,0.00,Wunderground v.1.15,2013-03-22 13:08:00,
2013-03-22 09:10:00,20.6,15.7,29.67,WNW,291,4.0,5.0,81,0.00,,,0.00,Wunderground v.1.15,2013-03-22 13:10:00,
2013-03-22 09:11:00,20.7,15.8,29.67,South,180,1.0,5.0,81,0.00,,,0.00,Wunderground v.1.15,2013-03-22 13:11:00,
2013-03-22 09:12:00,20.8,15.9,29.67,SW,232,4.0,5.0,81,0.00,,,0.00,Wunderground v.1.15,2013-03-22 13:12:00,
2013-03-22 09:13:00,20.8,15.9,29.67,SW,217,4.0,7.0,81,0.00,,,0.00,Wunderground v.1.15,2013-03-22 13:13:00,
2013-03-22 09:15:00,21.0,15.8,29.67,WNW,287,2.0,8.0,80,0.00,,,0.00,Wunderground v.1.15,2013-03-22 13:15:00,
2013-03-22 09:16:00,21.1,16.2,29.67,WSW,241,3.0,8.0,81,0.00,,,0.00,Wunderground v.1.15,2013-03-22 13:16:00,
2013-03-22 09:17:00,21.2,16.3,29.67,West,276,0.0,8.0,81,0.00,,,0.00,Wunderground v.1.15,2013-03-22 13:17:00,
2013-03-22 09:18:00,21.3,16.4,29.67,NW,317,3.0,8.0,81,0.00,,,0.00,Wunderground v.1.15,2013-03-22 13:18:00,
2013-03-22 09:20:00,21.6,16.4,29.67,West,273,4.0,4.0,80,0.00,,,0.00,Wunderground v.1.15,2013-03-22 13:20:00,
2013-03-22 09:22:00,21.7,16.5,29.67,West,269,2.0,6.0,80,0.00,,,0.00,Wunderground v.1.15,2013-03-22 13:22:00,
2013-03-22 09:23:00,21.8,16.6,29.67,NW,312,2.0,6.0,80,0.00,,,0.00,Wunderground v.1.15,2013-03-22 13:23:00,
2013-03-22 09:25:00,22.1,16.6,29.67,West,274,3.0,7.0,79,0.00,,,0.00,Wunderground v.1.15,2013-03-22 13:25:00,
2013-03-22 09:27:00,22.3,16.8,29.67,NW,322,2.0,7.0,79,0.00,,,0.00,Wunderground v.1.15,2013-03-22 13:27:00,
2013-03-22 09:29:00,22.5,17.0,29.67,SW,222,3.0,7.0,79,0.00,,,0.00,Wunderground v.1.15,2013-03-22 13:29:00,
2013-03-22 09:30:00,22.6,17.1,29.67,West,267,1.0,3.0,79,0.00,,,0.00,Wunderground v.1.15,2013-03-22 13:30:00,
2013-03-22 09:32:00,22.7,16.9,29.67,WSW,248,5.0,8.0,78,0.00,,,0.00,Wunderground v.1.15,2013-03-22 13:32:00,
2013-03-22 09:34:00,22.6,16.8,29.67,South,186,6.0,9.0,78,0.00,,,0.00,Wunderground v.1.15,2013-03-22 13:34:00,
2013-03-22 09:36:00,22.5,16.7,29.67,West,273,4.0,11.0,78,0.00,,,0.00,Wunderground v.1.15,2013-03-22 13:36:00,
2013-03-22 09:37:00,22.4,16.6,29.67,WSW,248,4.0,11.0,78,0.00,,,0.00,Wunderground v.1.15,2013-03-22 13:37:00,
2013-03-22 09:39:00,22.4,16.6,29.67,West,272,2.0,11.0,78,0.00,,,0.00,Wunderground v.1.15,2013-03-22 13:39:00,
2013-03-22 09:41:00,22.2,16.4,29.67,West,276,2.0,6.0,78,0.00,,,0.00,Wunderground v.1.15,2013-03-22 13:41:00,
2013-03-22 09:42:00,22.2,16.4,29.67,WNW,283,0.0,6.0,78,0.00,,,0.00,Wunderground v.1.15,2013-03-22 13:42:00,
2013-03-22 09:45:00,22.1,16.3,29.67,WSW,258,3.0,8.0,78,0.00,,,0.00,Wunderground v.1.15,2013-03-22 13:45:00,
2013-03-22 09:46:00,22.0,16.2,29.67,West,271,3.0,8.0,78,0.00,,,0.00,Wunderground v.1.15,2013-03-22 13:46:00,
2013-03-22 09:47:00,22.0,16.2,29.67,West,271,1.0,8.0,78,0.00,,,0.00,Wunderground v.1.15,2013-03-22 13:47:00,
2013-03-22 09:50:00,22.0,16.5,29.67,WSW,255,2.0,4.0,79,0.00,,,0.00,Wunderground v.1.15,2013-03-22 13:50:00,
2013-03-22 09:52:00,22.2,16.4,29.67,WNW,286,2.0,8.0,78,0.00,,,0.00,Wunderground v.1.15,2013-03-22 13:52:00,
2013-03-22 09:53:00,22.2,16.4,29.67,West,266,1.0,8.0,78,0.00,,,0.00,Wunderground v.1.15,2013-03-22 13:53:00,
2013-03-22 09:55:00,22.5,16.7,29.67,West,263,3.0,8.0,78,0.00,,,0.00,Wunderground v.1.15,2013-03-22 13:55:00,
2013-03-22 09:57:00,22.7,16.6,29.67,WNW,283,6.0,8.0,77,0.00,,,0.00,Wunderground v.1.15,2013-03-22 13:57:00,
2013-03-22 09:58:00,22.7,16.6,29.67,West,265,0.0,8.0,77,0.00,,,0.00,Wunderground v.1.15,2013-03-22 13:58:00,
2013-03-22 10:01:00,22.8,16.7,29.67,WNW,292,4.0,6.0,77,0.00,,,0.00,Wunderground v.1.15,2013-03-22 14:01:00,
2013-03-22 10:02:00,22.9,16.8,29.67,SSW,213,1.0,6.0,77,0.00,,,0.00,Wunderground v.1.15,2013-03-22 14:02:00,
2013-03-22 10:03:00,22.9,16.8,29.67,WSW,251,3.0,6.0,77,0.00,,,0.00,Wunderground v.1.15,2013-03-22 14:03:00,
2013-03-22 10:06:00,23.3,17.2,29.67,WSW,247,2.0,8.0,77,0.00,,,0.00,Wunderground v.1.15,2013-03-22 14:06:00,
2013-03-22 10:07:00,23.5,17.3,29.67,West,265,3.0,8.0,77,0.00,,,0.00,Wunderground v.1.15,2013-03-22 14:07:00,
2013-03-22 10:08:00,23.7,17.2,29.67,SW,218,2.0,8.0,76,0.00,,,0.00,Wunderground v.1.15,2013-03-22 14:08:00,
2013-03-22 10:09:00,23.8,17.6,29.67,SSW,212,3.0,8.0,77,0.00,,,0.00,Wunderground v.1.15,2013-03-22 14:09:00,
2013-03-22 10:11:00,24.0,17.5,29.67,NW,309,3.0,3.0,76,0.00,,,0.00,Wunderground v.1.15,2013-03-22 14:11:00,
2013-03-22 10:12:00,24.0,17.2,29.67,WNW,294,1.0,8.0,75,0.00,,,0.00,Wunderground v.1.15,2013-03-22 14:12:00,
2013-03-22 10:13:00,24.0,17.2,29.67,North,360,4.0,8.0,75,0.00,,,0.00,Wunderground v.1.15,2013-03-22 14:13:00,
2013-03-22 10:14:00,24.0,17.2,29.67,West,274,4.0,8.0,75,0.00,,,0.00,Wunderground v.1.15,2013-03-22 14:14:00,
2013-03-22 10:17:00,23.8,16.4,29.67,WSW,251,7.0,8.0,73,0.00,,,0.00,Wunderground v.1.15,2013-03-22 14:17:00,
2013-03-22 10:18:00,23.7,16.3,29.67,SW,223,2.0,10.0,73,0.00,,,0.00,Wunderground v.1.15,2013-03-22 14:18:00,
2013-03-22 10:19:00,23.7,16.6,29.67,WSW,254,5.0,10.0,74,0.00,,,0.00,Wunderground v.1.15,2013-03-22 14:19:00,
2013-03-22 10:22:00,23.8,16.7,29.67,West,269,4.0,6.0,74,0.00,,,0.00,Wunderground v.1.15,2013-03-22 14:22:00,
2013-03-22 10:23:00,23.8,16.7,29.67,WSW,246,4.0,6.0,74,0.00,,,0.00,Wunderground v.1.15,2013-03-22 14:23:00,
2013-03-22 10:24:00,23.9,16.8,29.67,NNW,336,3.0,6.0,74,0.00,,,0.00,Wunderground v.1.15,2013-03-22 14:24:00,
2013-03-22 10:27:00,24.3,17.2,29.67,WNW,282,5.0,8.0,74,0.00,,,0.00,Wunderground v.1.15,2013-03-22 14:27:00,
2013-03-22 10:28:00,24.4,17.0,29.67,West,278,1.0,8.0,73,0.00,,,0.00,Wunderground v.1.15,2013-03-22 14:28:00,
2013-03-22 10:29:00,24.5,17.1,29.67,West,263,5.0,8.0,73,0.00,,,0.00,Wunderground v.1.15,2013-03-22 14:29:00,
2013-03-22 10:30:00,24.6,17.2,29.67,West,265,3.0,4.0,73,0.00,,,0.00,Wunderground v.1.15,2013-03-22 14:30:00,
2013-03-22 10:32:00,24.6,16.9,29.67,SW,225,3.0,6.0,72,0.00,,,0.00,Wunderground v.1.15,2013-03-22 14:32:00,
2013-03-22 10:34:00,24.6,16.9,29.67,West,270,3.0,6.0,72,0.00,,,0.00,Wunderground v.1.15,2013-03-22 14:34:00,
2013-03-22 10:35:00,24.6,16.9,29.67,West,275,2.0,6.0,72,0.00,,,0.00,Wunderground v.1.15,2013-03-22 14:35:00,
2013-03-22 10:38:00,24.7,17.0,29.67,NW,319,0.0,6.0,72,0.00,,,0.00,Wunderground v.1.15,2013-03-22 14:38:00,
2013-03-22 10:39:00,24.8,17.1,29.67,North,360,4.0,6.0,72,0.00,,,0.00,Wunderground v.1.15,2013-03-22 14:39:00,
2013-03-22 10:40:00,24.9,17.1,29.67,West,277,4.0,4.0,72,0.00,,,0.00,Wunderground v.1.15,2013-03-22 14:40:00,
2013-03-22 10:43:00,25.1,17.0,29.67,WSW,242,1.0,6.0,71,0.00,,,0.00,Wunderground v.1.15,2013-03-22 14:43:00,
2013-03-22 10:44:00,25.0,16.9,29.67,NW,312,4.0,6.0,71,0.00,,,0.00,Wunderground v.1.15,2013-03-22 14:44:00,
2013-03-22 10:46:00,24.8,16.7,29.67,South,186,2.0,10.0,71,0.00,,,0.00,Wunderground v.1.15,2013-03-22 14:46:00,
2013-03-22 10:48:00,24.5,16.8,29.67,West,268,5.0,10.0,72,0.00,,,0.00,Wunderground v.1.15,2013-03-22 14:48:00,
2013-03-22 10:50:00,24.5,16.8,29.67,West,279,5.0,10.0,72,0.00,,,0.00,Wunderground v.1.15,2013-03-22 14:50:00,
2013-03-22 10:52:00,24.3,16.6,29.67,West,269,5.0,7.0,72,0.00,,,0.00,Wunderground v.1.15,2013-03-22 14:52:00,
2013-03-22 10:53:00,24.2,16.5,29.67,West,259,2.0,7.0,72,0.00,,,0.00,Wunderground v.1.15,2013-03-22 14:53:00,
2013-03-22 10:55:00,24.2,16.5,29.67,West,275,4.0,7.0,72,0.00,,,0.00,Wunderground v.1.15,2013-03-22 14:55:00,
2013-03-22 10:57:00,24.3,16.6,29.67,SW,229,6.0,7.0,72,0.00,,,0.00,Wunderground v.1.15,2013-03-22 14:57:00,
2013-03-22 10:59:00,24.4,16.7,29.67,WSW,248,2.0,7.0,72,0.00,,,0.00,Wunderground v.1.15,2013-03-22 14:59:00,
2013-03-22 11:00:00,24.7,17.0,29.67,WNW,302,2.0,7.0,72,0.00,,,0.00,Wunderground v.1.15,2013-03-22 15:00:00,
2013-03-22 11:03:00,25.2,17.1,29.67,WSW,250,2.0,9.0,71,0.00,,,0.00,Wunderground v.1.15,2013-03-22 15:03:00,
2013-03-22 11:04:00,25.2,17.1,29.67,West,274,4.0,9.0,71,0.00,,,0.00,Wunderground v.1.15,2013-03-22 15:04:00,
2013-03-22 11:05:00,25.3,17.2,29.67,WSW,246,2.0,10.0,71,0.00,,,0.00,Wunderground v.1.15,2013-03-22 15:05:00,
2013-03-22 11:06:00,25.5,17.1,29.67,SW,222,4.0,10.0,70,0.00,,,0.00,Wunderground v.1.15,2013-03-22 15:06:00,
2013-03-22 11:08:00,25.7,17.3,29.67,West,280,5.0,10.0,70,0.00,,,0.00,Wunderground v.1.15,2013-03-22 15:08:00,
2013-03-22 11:09:00,25.7,16.9,29.67,WSW,257,3.0,10.0,69,0.00,,,0.00,Wunderground v.1.15,2013-03-22 15:09:00,
2013-03-22 11:10:00,25.8,17.0,29.67,West,273,3.0,5.0,69,0.00,,,0.00,Wunderground v.1.15,2013-03-22 15:10:00,
2013-03-22 11:11:00,25.8,17.0,29.67,WSW,248,5.0,7.0,69,0.00,,,0.00,Wunderground v.1.15,2013-03-22 15:11:00,
2013-03-22 11:14:00,26.0,17.2,29.67,WSW,242,8.0,8.0,69,0.00,,,0.00,Wunderground v.1.15,2013-03-22 15:14:00,
2013-03-22 11:15:00,26.2,17.4,29.67,WNW,301,6.0,10.0,69,0.00,,,0.00,Wunderground v.1.15,2013-03-22 15:15:00,
2013-03-22 11:17:00,26.5,17.4,29.67,WSW,243,6.0,10.0,68,0.00,,,0.00,Wunderground v.1.15,2013-03-22 15:17:00,
2013-03-22 11:19:00,26.6,17.5,29.67,WSW,246,2.0,10.0,68,0.00,,,0.00,Wunderground v.1.15,2013-03-22 15:19:00,
2013-03-22 11:20:00,26.7,17.2,29.67,WNW,282,0.0,4.0,67,0.00,,,0.00,Wunderground v.1.15,2013-03-22 15:20:00,
2013-03-22 11:22:00,27.0,17.8,29.67,NW,322,6.0,9.0,68,0.00,,,0.00,Wunderground v.1.15,2013-03-22 15:22:00,
2013-03-22 11:24:00,27.1,17.2,29.67,West,281,3.0,9.0,66,0.00,,,0.00,Wunderground v.1.15,2013-03-22 15:24:00,
2013-03-22 11:25:00,27.2,17.7,29.67,WSW,248,5.0,9.0,67,0.00,,,0.00,Wunderground v.1.15,2013-03-22 15:25:00,
2013-03-22 11:26:00,27.3,17.4,29.67,WNW,291,5.0,9.0,66,0.00,,,0.00,Wunderground v.1.15,2013-03-22 15:26:00,
2013-03-22 11:27:00,27.3,17.1,29.67,West,259,4.0,9.0,65,0.00,,,0.00,Wunderground v.1.15,2013-03-22 15:27:00,
2013-03-22 11:29:00,27.4,17.5,29.67,West,269,3.0,9.0,66,0.00,,,0.00,Wunderground v.1.15,2013-03-22 15:29:00,
2013-03-22 11:30:00,27.4,17.5,29.67,West,269,4.0,5.0,66,0.00,,,0.00,Wunderground v.1.15,2013-03-22 15:30:00,
2013-03-22 11:32:00,27.3,17.8,29.67,West,265,4.0,9.0,67,0.00,,,0.00,Wunderground v.1.15,2013-03-22 15:32:00,
2013-03-22 11:34:00,27.1,17.2,29.67,WSW,237,3.0,9.0,66,0.00,,,0.00,Wunderground v.1.15,2013-03-22 15:34:00,
2013-03-22 11:35:00,26.9,17.0,29.67,WSW,242,4.0,9.0,66,0.00,,,0.00,Wunderground v.1.15,2013-03-22 15:35:00,
2013-03-22 11:37:00,27.0,17.5,29.67,West,273,7.0,9.0,67,0.00,,,0.00,Wunderground v.1.15,2013-03-22 15:37:00,
2013-03-22 11:39:00,27.3,17.4,29.67,WNW,296,5.0,9.0,66,0.00,,,0.00,Wunderground v.1.15,2013-03-22 15:39:00,
2013-03-22 11:41:00,27.6,17.7,29.67,West,266,7.0,7.0,66,0.00,,,0.00,Wunderground v.1.15,2013-03-22 15:41:00,
2013-03-22 11:42:00,27.8,17.9,29.67,West,260,1.0,7.0,66,0.00,,,0.00,Wunderground v.1.15,2013-03-22 15:42:00,
2013-03-22 11:44:00,27.9,18.0,29.67,WNW,288,2.0,7.0,66,0.00,,,0.00,Wunderground v.1.15,2013-03-22 15:44:00,
2013-03-22 11:46:00,28.0,18.1,29.67,WSW,254,2.0,7.0,66,0.00,,,0.00,Wunderground v.1.15,2013-03-22 15:46:00,
2013-03-22 11:47:00,28.0,18.1,29.67,West,281,3.0,7.0,66,0.00,,,0.00,Wunderground v.1.15,2013-03-22 15:47:00,
2013-03-22 11:50:00,28.1,17.8,29.67,WNW,294,1.0,4.0,65,0.00,,,0.00,Wunderground v.1.15,2013-03-22 15:50:00,
2013-03-22 11:52:00,27.8,18.3,29.67,SW,221,4.0,10.0,67,0.00,,,0.01,Wunderground v.1.15,2013-03-22 15:52:00,
2013-03-22 11:55:00,27.9,17.3,29.67,NW,325,2.0,10.0,64,0.00,,,0.01,Wunderground v.1.15,2013-03-22 15:55:00,
2013-03-22 11:57:00,28.2,17.9,29.67,NNW,327,7.0,10.0,65,0.00,,,0.01,Wunderground v.1.15,2013-03-22 15:57:00,
2013-03-22 11:58:00,28.3,18.0,29.67,SW,215,8.0,12.0,65,0.00,,,0.01,Wunderground v.1.15,2013-03-22 15:58:00,
2013-03-22 12:00:00,28.5,17.9,29.67,West,270,6.0,7.0,64,0.00,,,0.01,Wunderground v.1.15,2013-03-22 16:00:00,
2013-03-22 12:02:00,28.5,17.9,29.67,North,360,7.0,9.0,64,0.00,,,0.01,Wunderground v.1.15,2013-03-22 16:02:00,
2013-03-22 12:03:00,28.4,18.1,29.67,West,267,8.0,14.0,65,0.00,,,0.01,Wunderground v.1.15,2013-03-22 16:03:00,
2013-03-22 12:05:00,28.2,17.2,29.67,West,263,4.0,14.0,63,0.00,,,0.01,Wunderground v.1.15,2013-03-22 16:05:00,
2013-03-22 12:07:00,28.4,17.8,29.67,West,278,7.0,14.0,64,0.00,,,0.01,Wunderground v.1.15,2013-03-22 16:07:00,
2013-03-22 12:08:00,28.3,17.7,29.67,SW,223,6.0,14.0,64,0.00,,,0.01,Wunderground v.1.15,2013-03-22 16:08:00,
2013-03-22 12:10:00,28.2,17.9,29.67,NNW,337,6.0,7.0,65,0.00,,,0.01,Wunderground v.1.15,2013-03-22 16:10:00,
2013-03-22 12:12:00,28.5,18.2,29.67,West,263,5.0,9.0,65,0.00,,,0.01,Wunderground v.1.15,2013-03-22 16:12:00,
2013-03-22 12:13:00,28.5,18.2,29.67,WSW,247,2.0,9.0,65,0.00,,,0.01,Wunderground v.1.15,2013-03-22 16:13:00,
2013-03-22 12:16:00,28.0,17.4,29.67,South,186,3.0,9.0,64,0.00,,,0.01,Wunderground v.1.15,2013-03-22 16:16:00,
2013-03-22 12:17:00,27.9,16.9,29.67,West,278,6.0,11.0,63,0.00,,,0.01,Wunderground v.1.15,2013-03-22 16:17:00,
2013-03-22 12:18:00,27.9,17.3,29.67,WNW,284,6.0,11.0,64,0.00,,,0.01,Wunderground v.1.15,2013-03-22 16:18:00,
2013-03-22 12:19:00,28.0,17.4,29.67,WSW,253,6.0,11.0,64,0.00,,,0.01,Wunderground v.1.15,2013-03-22 16:19:00,
2013-03-22 12:21:00,28.2,17.6,29.67,WSW,251,7.0,8.0,64,0.00,,,0.01,Wunderground v.1.15,2013-03-22 16:21:00,
2013-03-22 12:22:00,28.7,18.8,29.67,WSW,254,4.0,8.0,66,0.00,,,0.01,Wunderground v.1.15,2013-03-22 16:22:00,
2013-03-22 12:23:00,28.8,19.6,29.67,West,277,4.0,8.0,68,0.00,,,0.01,Wunderground v.1.15,2013-03-22 16:23:00,
2013-03-22 12:24:00,29.1,18.8,29.67,NW,311,3.0,11.0,65,0.00,,,0.01,Wunderground v.1.15,2013-03-22 16:24:00,
2013-03-22 12:27:00,28.7,17.3,29.67,WSW,238,12.0,12.0,62,0.00,,,0.01,Wunderground v.1.15,2013-03-22 16:27:00,
2013-03-22 12:28:00,28.3,17.3,29.67,WNW,290,8.0,12.0,63,0.00,,,0.01,Wunderground v.1.15,2013-03-22 16:28:00,
2013-03-22 12:29:00,27.9,16.9,29.67,West,281,11.0,14.0,63,0.00,,,0.01,Wunderground v.1.15,2013-03-22 16:29:00,
2013-03-22 12:32:00,27.8,17.2,29.67,WSW,248,4.0,8.0,64,0.00,,,0.01,Wunderground v.1.15,2013-03-22 16:32:00,
2013-03-22 12:33:00,27.8,17.2,29.67,NNW,344,3.0,8.0,64,0.00,,,0.01,Wunderground v.1.15,2013-03-22 16:33:00,
2013-03-22 12:35:00,27.6,17.4,29.68,NNW,328,4.0,10.0,65,0.00,,,0.01,Wunderground v.1.15,2013-03-22 16:35:00,
2013-03-22 12:38:00,27.7,17.5,29.68,WNW,292,4.0,10.0,65,0.00,,,0.01,Wunderground v.1.15,2013-03-22 16:38:00,
2013-03-22 12:41:00,27.8,17.2,29.68,WNW,298,0.0,5.0,64,0.00,,,0.01,Wunderground v.1.15,2013-03-22 16:41:00,
2013-03-22 12:43:00,27.9,17.6,29.67,SW,235,6.0,9.0,65,0.00,,,0.01,Wunderground v.1.15,2013-03-22 16:43:00,
2013-03-22 12:44:00,28.0,18.1,29.67,WSW,243,7.0,12.0,66,0.00,,,0.01,Wunderground v.1.15,2013-03-22 16:44:00,
2013-03-22 12:46:00,28.1,17.8,29.67,WNW,288,2.0,12.0,65,0.00,,,0.01,Wunderground v.1.15,2013-03-22 16:46:00,
2013-03-22 12:48:00,28.4,18.1,29.67,SW,227,11.0,12.0,65,0.00,,,0.01,Wunderground v.1.15,2013-03-22 16:48:00,
2013-03-22 12:49:00,28.5,17.9,29.67,West,271,3.0,12.0,64,0.00,,,0.01,Wunderground v.1.15,2013-03-22 16:49:00,
2013-03-22 12:51:00,28.5,17.5,29.68,West,269,8.0,9.0,63,0.00,,,0.01,Wunderground v.1.15,2013-03-22 16:51:00,
2013-03-22 12:53:00,28.4,17.4,29.67,West,263,6.0,12.0,63,0.00,,,0.01,Wunderground v.1.15,2013-03-22 16:53:00,
2013-03-22 12:54:00,28.3,17.3,29.67,WNW,288,6.0,12.0,63,0.00,,,0.01,Wunderground v.1.15,2013-03-22 16:54:00,
2013-03-22 12:56:00,28.3,17.3,29.67,West,263,6.0,12.0,63,0.00,,,0.01,Wunderground v.1.15,2013-03-22 16:56:00,
2013-03-22 12:59:00,28.7,18.4,29.67,SW,230,5.0,12.0,65,0.00,,,0.01,Wunderground v.1.15,2013-03-22 16:59:00,
2013-03-22 13:01:00,28.8,17.8,29.67,WSW,244,4.0,8.0,63,0.00,,,0.01,Wunderground v.1.15,2013-03-22 17:01:00,
2013-03-22 13:04:00,29.1,18.1,29.67,West,274,7.0,8.0,63,0.00,,,0.01,Wunderground v.1.15,2013-03-22 17:04:00,
2013-03-22 13:06:00,29.1,17.7,29.67,SW,232,8.0,9.0,62,0.00,,,0.01,Wunderground v.1.15,2013-03-22 17:06:00,
2013-03-22 13:09:00,29.0,17.6,29.67,WNW,282,6.0,10.0,62,0.00,,,0.01,Wunderground v.1.15,2013-03-22 17:09:00,
2013-03-22 13:11:00,28.8,17.0,29.67,West,268,5.0,8.0,61,0.00,,,0.01,Wunderground v.1.15,2013-03-22 17:11:00,
2013-03-22 13:14:00,28.5,16.7,29.67,SW,227,9.0,10.0,61,0.00,,,0.01,Wunderground v.1.15,2013-03-22 17:14:00,
2013-03-22 13:17:00,28.7,17.3,29.67,NW,315,6.0,10.0,62,0.00,,,0.01,Wunderground v.1.15,2013-03-22 17:17:00,
2013-03-22 13:19:00,28.7,17.3,29.67,SSW,212,3.0,10.0,62,0.00,,,0.01,Wunderground v.1.15,2013-03-22 17:19:00,
2013-03-22 13:20:00,28.7,17.3,29.67,WSW,252,3.0,10.0,62,0.00,,,0.01,Wunderground v.1.15,2013-03-22 17:20:00,
2013-03-22 13:22:00,28.7,17.3,29.67,West,277,4.0,7.0,62,0.00,,,0.01,Wunderground v.1.15,2013-03-22 17:22:00,
2013-03-22 13:24:00,28.7,16.9,29.67,WNW,283,7.0,8.0,61,0.00,,,0.01,Wunderground v.1.15,2013-03-22 17:24:00,
2013-03-22 13:25:00,28.8,17.0,29.67,SW,226,3.0,8.0,61,0.00,,,0.01,Wunderground v.1.15,2013-03-22 17:25:00,
2013-03-22 13:27:00,29.2,17.8,29.67,West,264,5.0,9.0,62,0.00,,,0.01,Wunderground v.1.15,2013-03-22 17:27:00,
2013-03-22 13:29:00,29.7,18.3,29.67,West,267,8.0,9.0,62,0.00,,,0.01,Wunderground v.1.15,2013-03-22 17:29:00,
2013-03-22 13:30:00,29.8,18.7,29.67,SSW,194,9.0,10.0,63,0.00,,,0.01,Wunderground v.1.15,2013-03-22 17:30:00,
2013-03-22 13:33:00,30.7,18.4,29.67,West,265,7.0,9.0,60,0.00,,,0.01,Wunderground v.1.15,2013-03-22 17:33:00,
2013-03-22 13:34:00,30.6,17.6,29.67,West,261,9.0,14.0,58,0.00,,,0.01,Wunderground v.1.15,2013-03-22 17:34:00,
2013-03-22 13:35:00,30.4,17.4,29.66,SSW,205,5.0,14.0,58,0.00,,,0.01,Wunderground v.1.15,2013-03-22 17:35:00,
2013-03-22 13:38:00,29.9,17.3,29.66,SSW,197,5.0,14.0,59,0.00,,,0.01,Wunderground v.1.15,2013-03-22 17:38:00,
2013-03-22 13:40:00,29.9,17.7,29.66,SSW,213,4.0,14.0,60,0.00,,,0.01,Wunderground v.1.15,2013-03-22 17:40:00,
2013-03-22 13:41:00,29.9,17.7,29.66,SW,228,5.0,9.0,60,0.00,,,0.01,Wunderground v.1.15,2013-03-22 17:41:00,
2013-03-22 13:43:00,29.9,17.3,29.67,West,274,5.0,9.0,59,0.00,,,0.01,Wunderground v.1.15,2013-03-22 17:43:00,
2013-03-22 13:45:00,29.9,16.9,29.66,WSW,244,8.0,9.0,58,0.00,,,0.01,Wunderground v.1.15,2013-03-22 17:45:00,
2013-03-22 13:47:00,29.8,17.6,29.66,NW,311,5.0,9.0,60,0.00,,,0.01,Wunderground v.1.15,2013-03-22 17:47:00,
2013-03-22 13:49:00,29.7,17.5,29.66,SW,232,5.0,13.0,60,0.00,,,0.01,Wunderground v.1.15,2013-03-22 17:49:00,
2013-03-22 13:50:00,29.6,17.0,29.66,WSW,247,4.0,13.0,59,0.00,,,0.01,Wunderground v.1.15,2013-03-22 17:50:00,
2013-03-22 13:52:00,29.3,17.1,29.66,West,264,4.0,7.0,60,0.00,,,0.01,Wunderground v.1.15,2013-03-22 17:52:00,
2013-03-22 13:54:00,29.2,17.8,29.66,West,263,5.0,11.0,62,0.00,,,0.01,Wunderground v.1.15,2013-03-22 17:54:00,
2013-03-22 13:55:00,29.1,17.3,29.66,WSW,248,5.0,11.0,61,0.00,,,0.01,Wunderground v.1.15,2013-03-22 17:55:00,
2013-03-22 13:57:00,29.1,17.3,29.66,West,271,3.0,11.0,61,0.00,,,0.01,Wunderground v.1.15,2013-03-22 17:57:00,
2013-03-22 14:00:00,29.2,17.0,29.66,West,274,2.0,11.0,60,0.00,,,0.01,Wunderground v.1.15,2013-03-22 18:00:00,
2013-03-22 14:02:00,29.3,17.5,29.66,West,268,5.0,11.0,61,0.00,,,0.01,Wunderground v.1.15,2013-03-22 18:02:00,
2013-03-22 14:05:00,29.4,17.6,29.66,West,271,7.0,11.0,61,0.00,,,0.01,Wunderground v.1.15,2013-03-22 18:05:00,
2013-03-22 14:07:00,29.6,17.8,29.66,West,261,4.0,11.0,61,0.00,,,0.01,Wunderground v.1.15,2013-03-22 18:07:00,
2013-03-22 14:10:00,29.7,17.5,29.66,WNW,295,5.0,6.0,60,0.00,,,0.01,Wunderground v.1.15,2013-03-22 18:10:00,
2013-03-22 14:11:00,29.7,17.9,29.66,West,259,10.0,10.0,61,0.00,,,0.01,Wunderground v.1.15,2013-03-22 18:11:00,
2013-03-22 14:12:00,29.7,17.9,29.66,WSW,252,3.0,12.0,61,0.00,,,0.01,Wunderground v.1.15,2013-03-22 18:12:00,
2013-03-22 14:15:00,29.6,18.2,29.66,WSW,238,8.0,12.0,62,0.00,,,0.01,Wunderground v.1.15,2013-03-22 18:15:00,
2013-03-22 14:17:00,29.4,17.2,29.66,SW,234,7.0,12.0,60,0.00,,,0.01,Wunderground v.1.15,2013-03-22 18:17:00,
2013-03-22 14:20:00,29.5,17.7,29.66,WSW,239,4.0,9.0,61,0.00,,,0.01,Wunderground v.1.15,2013-03-22 18:20:00,
2013-03-22 14:21:00,29.4,17.2,29.66,WSW,244,8.0,9.0,60,0.00,,,0.01,Wunderground v.1.15,2013-03-22 18:21:00,
2013-03-22 14:22:00,29.4,17.6,29.66,WSW,240,6.0,9.0,61,0.00,,,0.01,Wunderground v.1.15,2013-03-22 18:22:00,
2013-03-22 14:25:00,29.4,18.0,29.66,SW,228,10.0,10.0,62,0.00,,,0.01,Wunderground v.1.15,2013-03-22 18:25:00,
2013-03-22 14:26:00,29.4,18.3,29.66,SW,218,4.0,10.0,63,0.00,,,0.01,Wunderground v.1.15,2013-03-22 18:26:00,
2013-03-22 14:27:00,29.3,18.3,29.66,WSW,248,4.0,10.0,63,0.00,,,0.01,Wunderground v.1.15,2013-03-22 18:27:00,
2013-03-22 14:28:00,29.2,18.2,29.66,West,265,4.0,10.0,63,0.00,,,0.01,Wunderground v.1.15,2013-03-22 18:28:00,
2013-03-22 14:30:00,29.2,18.5,29.66,NW,304,9.0,9.0,64,0.00,,,0.01,Wunderground v.1.15,2013-03-22 18:30:00,
2013-03-22 14:32:00,29.2,18.2,29.66,SW,228,4.0,10.0,63,0.00,,,0.01,Wunderground v.1.15,2013-03-22 18:32:00,
2013-03-22 14:33:00,29.1,18.1,29.66,WSW,252,3.0,10.0,63,0.00,,,0.01,Wunderground v.1.15,2013-03-22 18:33:00,
2013-03-22 14:36:00,28.9,18.6,29.66,West,264,3.0,10.0,65,0.00,,,0.01,Wunderground v.1.15,2013-03-22 18:36:00,
2013-03-22 14:37:00,28.8,18.1,29.66,WSW,254,8.0,10.0,64,0.00,,,0.01,Wunderground v.1.15,2013-03-22 18:37:00,
2013-03-22 14:38:00,28.6,18.0,29.66,SW,220,5.0,11.0,64,0.00,,,0.01,Wunderground v.1.15,2013-03-22 18:38:00,
2013-03-22 14:41:00,28.2,18.6,29.66,West,263,2.0,6.0,67,0.00,,,0.01,Wunderground v.1.15,2013-03-22 18:41:00,
2013-03-22 14:42:00,28.1,18.9,29.66,WSW,250,4.0,6.0,68,0.00,,,0.01,Wunderground v.1.15,2013-03-22 18:42:00,
2013-03-22 14:43:00,28.1,19.2,29.66,WSW,245,5.0,6.0,69,0.00,,,0.01,Wunderground v.1.15,2013-03-22 18:43:00,
2013-03-22 14:47:00,27.9,19.0,29.66,West,262,2.0,6.0,69,0.00,,,0.01,Wunderground v.1.15,2013-03-22 18:47:00,
2013-03-22 14:48:00,28.0,19.8,29.66,SW,234,4.0,7.0,71,0.00,,,0.01,Wunderground v.1.15,2013-03-22 18:48:00,
2013-03-22 14:52:00,28.6,20.7,29.66,SW,216,7.0,8.0,72,0.00,,,0.01,Wunderground v.1.15,2013-03-22 18:52:00,
2013-03-22 14:53:00,28.9,21.7,29.66,WSW,248,6.0,9.0,74,0.00,,,0.01,Wunderground v.1.15,2013-03-22 18:53:00,
2013-03-22 14:57:00,29.4,21.8,29.66,West,278,6.0,9.0,73,0.00,,,0.01,Wunderground v.1.15,2013-03-22 18:57:00,
2013-03-22 14:58:00,29.5,21.9,29.66,WNW,288,8.0,11.0,73,0.00,,,0.01,Wunderground v.1.15,2013-03-22 18:58:00,
2013-03-22 15:02:00,30.1,22.2,29.65,South,189,3.0,7.0,72,0.00,,,0.01,Wunderground v.1.15,2013-03-22 19:02:00,
2013-03-22 15:03:00,30.3,22.0,29.65,SW,226,10.0,10.0,71,0.00,,,0.01,Wunderground v.1.15,2013-03-22 19:03:00,
2013-03-22 15:04:00,30.3,22.0,29.65,WSW,246,6.0,10.0,71,0.00,,,0.01,Wunderground v.1.15,2013-03-22 19:04:00,
2013-03-22 15:07:00,30.6,21.6,29.65,SSW,205,5.0,11.0,69,0.00,,,0.01,Wunderground v.1.15,2013-03-22 19:07:00,
2013-03-22 15:08:00,30.6,22.3,29.66,SSW,209,4.0,11.0,71,0.00,,,0.01,Wunderground v.1.15,2013-03-22 19:08:00,
2013-03-22 15:09:00,30.6,22.3,29.65,WSW,249,5.0,11.0,71,0.00,,,0.01,Wunderground v.1.15,2013-03-22 19:09:00,
2013-03-22 15:12:00,30.0,21.4,29.65,WSW,239,5.0,12.0,70,0.00,,,0.02,Wunderground v.1.15,2013-03-22 19:12:00,
2013-03-22 15:14:00,29.8,21.9,29.65,NW,308,11.0,12.0,72,0.00,,,0.02,Wunderground v.1.15,2013-03-22 19:14:00,
2013-03-22 15:17:00,30.4,22.8,29.65,SW,227,3.0,12.0,73,0.00,,,0.02,Wunderground v.1.15,2013-03-22 19:17:00,
2013-03-22 15:18:00,30.6,23.0,29.65,WNW,282,8.0,12.0,73,0.00,,,0.02,Wunderground v.1.15,2013-03-22 19:18:00,
2013-03-22 15:19:00,30.5,22.9,29.65,West,268,5.0,12.0,73,0.00,,,0.02,Wunderground v.1.15,2013-03-22 19:19:00,
2013-03-22 15:22:00,29.9,22.6,29.66,SSW,209,5.0,10.0,74,0.00,,,0.02,Wunderground v.1.15,2013-03-22 19:22:00,
2013-03-22 15:23:00,29.7,22.4,29.66,West,261,3.0,10.0,74,0.00,,,0.02,Wunderground v.1.15,2013-03-22 19:23:00,
2013-03-22 15:24:00,29.7,22.4,29.66,West,261,3.0,10.0,74,0.00,,,0.02,Wunderground v.1.15,2013-03-22 19:24:00,
2013-03-22 15:27:00,29.1,22.5,29.66,WSW,256,5.0,10.0,76,0.00,,,0.02,Wunderground v.1.15,2013-03-22 19:27:00,
2013-03-22 15:29:00,29.0,22.4,29.66,WSW,245,4.0,12.0,76,0.00,,,0.02,Wunderground v.1.15,2013-03-22 19:29:00,
2013-03-22 15:30:00,28.9,22.3,29.66,WSW,251,3.0,12.0,76,0.00,,,0.02,Wunderground v.1.15,2013-03-22 19:30:00,
2013-03-22 15:33:00,28.6,22.3,29.66,West,265,3.0,6.0,77,0.00,,,0.02,Wunderground v.1.15,2013-03-22 19:33:00,
2013-03-22 15:34:00,28.9,22.9,29.66,WSW,239,6.0,11.0,78,0.00,,,0.02,Wunderground v.1.15,2013-03-22 19:34:00,
2013-03-22 15:35:00,28.9,22.9,29.66,South,188,5.0,11.0,78,0.00,,,0.02,Wunderground v.1.15,2013-03-22 19:35:00,
2013-03-22 15:38:00,29.1,22.8,29.66,West,271,4.0,16.0,77,0.00,,,0.02,Wunderground v.1.15,2013-03-22 19:38:00,
2013-03-22 15:40:00,28.8,21.6,29.66,SW,236,7.0,16.0,74,0.00,,,0.02,Wunderground v.1.15,2013-03-22 19:40:00,
2013-03-22 15:43:00,28.8,22.2,29.66,West,264,7.0,11.0,76,0.00,,,0.02,Wunderground v.1.15,2013-03-22 19:43:00,
2013-03-22 15:45:00,28.8,21.2,29.66,SW,231,4.0,13.0,73,0.00,,,0.02,Wunderground v.1.15,2013-03-22 19:45:00,
2013-03-22 15:48:00,28.7,21.1,29.66,West,271,10.0,13.0,73,0.00,,,0.02,Wunderground v.1.15,2013-03-22 19:48:00,
2013-03-22 15:50:00,28.7,21.1,29.65,WSW,253,5.0,5.0,73,0.00,,,0.02,Wunderground v.1.15,2013-03-22 19:50:00,
2013-03-22 15:53:00,28.9,21.3,29.66,West,261,4.0,12.0,73,0.00,,,0.02,Wunderground v.1.15,2013-03-22 19:53:00,
2013-03-22 15:55:00,29.0,21.1,29.66,WNW,290,5.0,12.0,72,0.00,,,0.02,Wunderground v.1.15,2013-03-22 19:55:00,
2013-03-22 15:56:00,29.0,21.1,29.66,WSW,238,2.0,12.0,72,0.00,,,0.02,Wunderground v.1.15,2013-03-22 19:56:00,
2013-03-22 15:58:00,28.9,21.0,29.66,WSW,241,5.0,12.0,72,0.00,,,0.02,Wunderground v.1.15,2013-03-22 19:58:00,
2013-03-22 16:00:00,28.6,21.0,29.66,West,274,5.0,5.0,73,0.00,,,0.02,Wunderground v.1.15,2013-03-22 20:00:00,
2013-03-22 16:01:00,28.7,21.5,29.66,WNW,286,3.0,5.0,74,0.00,,,0.02,Wunderground v.1.15,2013-03-22 20:01:00,
2013-03-22 16:04:00,28.7,22.1,29.66,West,264,6.0,9.0,76,0.00,,,0.02,Wunderground v.1.15,2013-03-22 20:04:00,
2013-03-22 16:05:00,28.8,22.2,29.66,WSW,244,4.0,9.0,76,0.00,,,0.02,Wunderground v.1.15,2013-03-22 20:05:00,
2013-03-22 16:06:00,28.9,22.0,29.66,West,269,4.0,9.0,75,0.00,,,0.02,Wunderground v.1.15,2013-03-22 20:06:00,
2013-03-22 16:09:00,29.0,21.7,29.66,WSW,238,3.0,9.0,74,0.00,,,0.02,Wunderground v.1.15,2013-03-22 20:09:00,
2013-03-22 16:10:00,29.0,21.7,29.66,West,264,5.0,7.0,74,0.00,,,0.02,Wunderground v.1.15,2013-03-22 20:10:00,
2013-03-22 16:11:00,29.0,22.1,29.66,WNW,296,2.0,7.0,75,0.00,,,0.02,Wunderground v.1.15,2013-03-22 20:11:00,
2013-03-22 16:12:00,29.1,22.2,29.66,WNW,288,5.0,7.0,75,0.00,,,0.02,Wunderground v.1.15,2013-03-22 20:12:00,
2013-03-22 16:14:00,29.3,22.0,29.66,WSW,257,2.0,7.0,74,0.00,,,0.02,Wunderground v.1.15,2013-03-22 20:14:00,
2013-03-22 16:15:00,29.2,21.9,29.66,SSW,208,4.0,8.0,74,0.00,,,0.02,Wunderground v.1.15,2013-03-22 20:15:00,
2013-03-22 16:16:00,29.1,22.2,29.66,NW,321,5.0,8.0,75,0.00,,,0.02,Wunderground v.1.15,2013-03-22 20:16:00,
2013-03-22 16:17:00,28.9,22.0,29.66,WSW,252,2.0,8.0,75,0.00,,,0.02,Wunderground v.1.15,2013-03-22 20:17:00,
2013-03-22 16:19:00,28.7,22.1,29.66,SW,236,3.0,8.0,76,0.00,,,0.02,Wunderground v.1.15,2013-03-22 20:19:00,
2013-03-22 16:21:00,28.5,21.9,29.66,SW,229,2.0,4.0,76,0.00,,,0.02,Wunderground v.1.15,2013-03-22 20:21:00,
2013-03-22 16:22:00,28.5,22.2,29.66,WSW,244,3.0,4.0,77,0.00,,,0.02,Wunderground v.1.15,2013-03-22 20:22:00,
2013-03-22 16:25:00,28.3,22.3,29.66,SW,223,3.0,5.0,78,0.00,,,0.02,Wunderground v.1.15,2013-03-22 20:25:00,
2013-03-22 16:27:00,28.3,22.0,29.66,SSW,205,2.0,5.0,77,0.00,,,0.02,Wunderground v.1.15,2013-03-22 20:27:00,
2013-03-22 16:30:00,28.2,21.9,29.66,WSW,252,5.0,6.0,77,0.00,,,0.02,Wunderground v.1.15,2013-03-22 20:30:00,
2013-03-22 16:32:00,28.1,22.4,29.66,SW,218,4.0,8.0,79,0.00,,,0.02,Wunderground v.1.15,2013-03-22 20:32:00,
2013-03-22 16:35:00,27.4,23.2,29.67,WSW,254,4.0,10.0,84,0.00,,,0.02,Wunderground v.1.15,2013-03-22 20:35:00,
2013-03-22 16:37:00,26.9,23.3,29.67,WSW,249,4.0,10.0,86,0.00,,,0.02,Wunderground v.1.15,2013-03-22 20:37:00,
2013-03-22 16:38:00,26.8,23.2,29.67,SSE,155,2.0,10.0,86,0.00,,,0.02,Wunderground v.1.15,2013-03-22 20:38:00,
2013-03-22 16:41:00,26.3,23.5,29.67,West,278,5.0,7.0,89,0.00,,,0.02,Wunderground v.1.15,2013-03-22 20:41:00,
2013-03-22 16:42:00,26.3,23.8,29.67,WSW,258,11.0,11.0,90,0.00,,,0.02,Wunderground v.1.15,2013-03-22 20:42:00,
2013-03-22 16:43:00,26.2,23.7,29.67,West,261,5.0,11.0,90,0.00,,,0.02,Wunderground v.1.15,2013-03-22 20:43:00,
2013-03-22 16:47:00,26.3,24.0,29.67,WSW,240,3.0,11.0,91,0.00,,,0.02,Wunderground v.1.15,2013-03-22 20:47:00,
2013-03-22 16:48:00,26.4,24.4,29.67,West,263,4.0,11.0,92,0.00,,,0.02,Wunderground v.1.15,2013-03-22 20:48:00,
2013-03-22 16:52:00,27.1,25.1,29.67,WSW,257,3.0,6.0,92,0.00,,,0.02,Wunderground v.1.15,2013-03-22 20:52:00,
2013-03-22 16:53:00,27.1,25.1,29.67,West,259,5.0,6.0,92,0.00,,,0.02,Wunderground v.1.15,2013-03-22 20:53:00,
2013-03-22 16:57:00,27.1,24.8,29.66,West,266,3.0,7.0,91,0.00,,,0.02,Wunderground v.1.15,2013-03-22 20:57:00,
2013-03-22 16:59:00,27.0,24.5,29.66,SW,217,4.0,7.0,90,0.00,,,0.02,Wunderground v.1.15,2013-03-22 20:59:00,
2013-03-22 17:03:00,26.8,24.0,29.66,West,267,4.0,10.0,89,0.00,,,0.02,Wunderground v.1.15,2013-03-22 21:03:00,
2013-03-22 17:04:00,26.8,23.7,29.66,WNW,303,1.0,10.0,88,0.00,,,0.02,Wunderground v.1.15,2013-03-22 21:04:00,
2013-03-22 17:05:00,26.8,23.7,29.66,WSW,250,4.0,10.0,88,0.00,,,0.02,Wunderground v.1.15,2013-03-22 21:05:00,
2013-03-22 17:08:00,26.9,23.8,29.66,West,259,3.0,10.0,88,0.00,,,0.02,Wunderground v.1.15,2013-03-22 21:08:00,
2013-03-22 17:10:00,26.9,23.5,29.66,West,279,4.0,10.0,87,0.00,,,0.02,Wunderground v.1.15,2013-03-22 21:10:00,
2013-03-22 17:13:00,26.7,23.4,29.66,WNW,284,4.0,11.0,87,0.00,,,0.02,Wunderground v.1.15,2013-03-22 21:13:00,
2013-03-22 17:14:00,26.7,23.4,29.67,West,275,10.0,11.0,87,0.00,,,0.02,Wunderground v.1.15,2013-03-22 21:14:00,
2013-03-22 17:15:00,26.6,23.5,29.67,West,280,5.0,11.0,88,0.00,,,0.02,Wunderground v.1.15,2013-03-22 21:15:00,
2013-03-22 17:18:00,26.2,23.7,29.67,NW,304,1.0,12.0,90,0.00,,,0.02,Wunderground v.1.15,2013-03-22 21:18:00,
2013-03-22 17:19:00,26.1,23.6,29.67,West,267,3.0,12.0,90,0.00,,,0.02,Wunderground v.1.15,2013-03-22 21:19:00,
2013-03-22 17:20:00,26.1,23.6,29.67,West,274,2.0,5.0,90,0.00,,,0.02,Wunderground v.1.15,2013-03-22 21:20:00,
2013-03-22 17:21:00,26.1,23.6,29.67,West,269,4.0,5.0,90,0.00,,,0.02,Wunderground v.1.15,2013-03-22 21:21:00,
2013-03-22 17:23:00,26.0,24.0,29.67,WSW,239,4.0,8.0,92,0.00,,,0.02,Wunderground v.1.15,2013-03-22 21:23:00,
2013-03-22 17:24:00,26.0,24.0,29.67,West,269,2.0,8.0,92,0.00,,,0.02,Wunderground v.1.15,2013-03-22 21:24:00,
2013-03-22 17:26:00,25.9,23.9,29.67,West,265,2.0,8.0,92,0.00,,,0.02,Wunderground v.1.15,2013-03-22 21:26:00,
2013-03-22 17:29:00,26.1,24.4,29.67,WSW,250,4.0,8.0,93,0.00,,,0.02,Wunderground v.1.15,2013-03-22 21:29:00,
2013-03-22 17:31:00,26.3,24.6,29.67,West,269,2.0,4.0,93,0.00,,,0.02,Wunderground v.1.15,2013-03-22 21:31:00,
2013-03-22 17:34:00,26.5,24.8,29.67,WSW,246,2.0,4.0,93,0.00,,,0.02,Wunderground v.1.15,2013-03-22 21:34:00,
2013-03-22 17:36:00,26.6,24.6,29.67,WNW,292,1.0,7.0,92,0.00,,,0.02,Wunderground v.1.15,2013-03-22 21:36:00,
2013-03-22 17:39:00,26.9,24.9,29.67,West,263,5.0,7.0,92,0.00,,,0.02,Wunderground v.1.15,2013-03-22 21:39:00,
2013-03-22 17:40:00,26.9,24.9,29.67,WNW,288,9.0,9.0,92,0.00,,,0.02,Wunderground v.1.15,2013-03-22 21:40:00,
2013-03-22 17:41:00,26.7,24.4,29.67,WSW,252,6.0,15.0,91,0.00,,,0.02,Wunderground v.1.15,2013-03-22 21:41:00,
2013-03-22 17:42:00,26.7,24.4,29.67,West,277,3.0,15.0,91,0.00,,,0.02,Wunderground v.1.15,2013-03-22 21:42:00,
2013-03-22 17:44:00,26.7,24.2,29.67,SW,221,7.0,15.0,90,0.00,,,0.02,Wunderground v.1.15,2013-03-22 21:44:00,
2013-03-22 17:45:00,26.7,24.2,29.67,SW,225,2.0,15.0,90,0.00,,,0.02,Wunderground v.1.15,2013-03-22 21:45:00,
2013-03-22 17:47:00,26.7,24.2,29.67,WSW,251,3.0,15.0,90,0.00,,,0.02,Wunderground v.1.15,2013-03-22 21:47:00,
2013-03-22 17:49:00,26.7,23.9,29.67,West,263,6.0,15.0,89,0.00,,,0.02,Wunderground v.1.15,2013-03-22 21:49:00,
2013-03-22 17:50:00,26.7,23.9,29.67,West,276,4.0,5.0,89,0.00,,,0.02,Wunderground v.1.15,2013-03-22 21:50:00,
2013-03-22 17:52:00,26.7,23.6,29.67,SW,230,3.0,6.0,88,0.00,,,0.02,Wunderground v.1.15,2013-03-22 21:52:00,
2013-03-22 17:53:00,26.7,23.6,29.67,WSW,242,3.0,6.0,88,0.00,,,0.02,Wunderground v.1.15,2013-03-22 21:53:00,
2013-03-22 17:54:00,26.8,23.7,29.68,SW,233,3.0,6.0,88,0.00,,,0.02,Wunderground v.1.15,2013-03-22 21:54:00,
2013-03-22 17:55:00,26.8,23.7,29.68,West,269,4.0,7.0,88,0.00,,,0.02,Wunderground v.1.15,2013-03-22 21:55:00,
2013-03-22 17:58:00,26.7,23.1,29.67,SSW,211,7.0,7.0,86,0.00,,,0.02,Wunderground v.1.15,2013-03-22 21:58:00,
2013-03-22 17:59:00,26.6,23.3,29.68,West,275,5.0,7.0,87,0.00,,,0.02,Wunderground v.1.15,2013-03-22 21:59:00,
2013-03-22 18:01:00,26.6,23.3,29.67,West,265,6.0,8.0,87,0.00,,,0.02,Wunderground v.1.15,2013-03-22 22:01:00,
2013-03-22 18:03:00,26.5,23.2,29.68,SW,221,9.0,9.0,87,0.00,,,0.02,Wunderground v.1.15,2013-03-22 22:03:00,
2013-03-22 18:04:00,26.5,23.4,29.68,WSW,244,6.0,9.0,88,0.00,,,0.02,Wunderground v.1.15,2013-03-22 22:04:00,
2013-03-22 18:07:00,26.3,23.2,29.68,WSW,246,3.0,9.0,88,0.00,,,0.02,Wunderground v.1.15,2013-03-22 22:07:00,
2013-03-22 18:08:00,26.3,23.2,29.68,West,271,4.0,9.0,88,0.00,,,0.02,Wunderground v.1.15,2013-03-22 22:08:00,
2013-03-22 18:09:00,26.3,23.5,29.68,NW,321,3.0,9.0,89,0.00,,,0.02,Wunderground v.1.15,2013-03-22 22:09:00,
2013-03-22 18:12:00,26.3,23.5,29.68,West,261,4.0,5.0,89,0.00,,,0.02,Wunderground v.1.15,2013-03-22 22:12:00,
2013-03-22 18:13:00,26.3,23.5,29.68,West,265,4.0,5.0,89,0.00,,,0.02,Wunderground v.1.15,2013-03-22 22:13:00,
2013-03-22 18:14:00,26.3,23.5,29.68,SSW,209,3.0,5.0,89,0.00,,,0.02,Wunderground v.1.15,2013-03-22 22:14:00,
2013-03-22 18:17:00,26.2,23.4,29.68,WSW,247,2.0,6.0,89,0.00,,,0.02,Wunderground v.1.15,2013-03-22 22:17:00,
2013-03-22 18:18:00,26.2,23.7,29.68,SW,234,4.0,6.0,90,0.00,,,0.02,Wunderground v.1.15,2013-03-22 22:18:00,
2013-03-22 18:19:00,26.3,23.8,29.68,WSW,240,3.0,6.0,90,0.00,,,0.02,Wunderground v.1.15,2013-03-22 22:19:00,
2013-03-22 18:20:00,26.2,23.7,29.68,West,265,4.0,4.0,90,0.00,,,0.02,Wunderground v.1.15,2013-03-22 22:20:00,
2013-03-22 18:22:00,26.1,23.6,29.68,West,262,3.0,5.0,90,0.00,,,0.02,Wunderground v.1.15,2013-03-22 22:22:00,
2013-03-22 18:23:00,26.1,23.8,29.68,WSW,257,4.0,5.0,91,0.00,,,0.02,Wunderground v.1.15,2013-03-22 22:23:00,
2013-03-22 18:24:00,26.1,23.8,29.68,SW,235,2.0,5.0,91,0.00,,,0.02,Wunderground v.1.15,2013-03-22 22:24:00,
2013-03-22 18:25:00,26.0,23.7,29.68,WSW,246,3.0,5.0,91,0.00,,,0.02,Wunderground v.1.15,2013-03-22 22:25:00,
2013-03-22 18:27:00,26.0,23.7,29.68,West,272,10.0,10.0,91,0.00,,,0.02,Wunderground v.1.15,2013-03-22 22:27:00,
2013-03-22 18:29:00,25.9,23.6,29.68,WSW,250,5.0,10.0,91,0.00,,,0.02,Wunderground v.1.15,2013-03-22 22:29:00,
2013-03-22 18:30:00,25.9,23.6,29.68,WSW,248,3.0,5.0,91,0.00,,,0.02,Wunderground v.1.15,2013-03-22 22:30:00,
2013-03-22 18:32:00,25.9,23.6,29.69,West,280,5.0,6.0,91,0.00,,,0.02,Wunderground v.1.15,2013-03-22 22:32:00,
2013-03-22 18:34:00,25.9,23.9,29.69,West,269,3.0,8.0,92,0.00,,,0.02,Wunderground v.1.15,2013-03-22 22:34:00,
2013-03-22 18:35:00,25.9,23.9,29.69,West,263,4.0,8.0,92,0.00,,,0.02,Wunderground v.1.15,2013-03-22 22:35:00,
2013-03-22 18:37:00,25.8,23.5,29.69,West,259,2.0,8.0,91,0.00,,,0.02,Wunderground v.1.15,2013-03-22 22:37:00,
2013-03-22 18:39:00,25.8,23.5,29.69,WSW,246,1.0,8.0,91,0.00,,,0.02,Wunderground v.1.15,2013-03-22 22:39:00,
2013-03-22 18:40:00,25.8,23.5,29.69,West,269,3.0,3.0,91,0.00,,,0.02,Wunderground v.1.15,2013-03-22 22:40:00,
2013-03-22 18:43:00,25.7,23.4,29.69,WSW,254,3.0,5.0,91,0.00,,,0.02,Wunderground v.1.15,2013-03-22 22:43:00,
2013-03-22 18:44:00,25.7,23.4,29.69,West,259,4.0,6.0,91,0.00,,,0.02,Wunderground v.1.15,2013-03-22 22:44:00,
2013-03-22 18:45:00,25.6,23.3,29.69,WSW,238,1.0,6.0,91,0.00,,,0.02,Wunderground v.1.15,2013-03-22 22:45:00,
2013-03-22 18:46:00,25.6,23.6,29.69,West,266,6.0,6.0,92,0.00,,,0.02,Wunderground v.1.15,2013-03-22 22:46:00,
2013-03-22 18:48:00,25.6,23.6,29.69,WSW,256,2.0,6.0,92,0.00,,,0.02,Wunderground v.1.15,2013-03-22 22:48:00,
2013-03-22 18:50:00,25.6,23.6,29.69,West,273,3.0,3.0,92,0.00,,,0.02,Wunderground v.1.15,2013-03-22 22:50:00,
2013-03-22 18:52:00,25.7,24.0,29.69,West,273,1.0,3.0,93,0.00,,,0.02,Wunderground v.1.15,2013-03-22 22:52:00,
2013-03-22 18:53:00,25.7,24.0,29.69,West,273,2.0,3.0,93,0.00,,,0.02,Wunderground v.1.15,2013-03-22 22:53:00,
2013-03-22 18:55:00,25.7,24.0,29.69,West,269,4.0,4.0,93,0.00,,,0.02,Wunderground v.1.15,2013-03-22 22:55:00,
2013-03-22 18:56:00,25.7,24.0,29.69,West,263,2.0,4.0,93,0.00,,,0.02,Wunderground v.1.15,2013-03-22 22:56:00,
2013-03-22 18:57:00,25.7,24.2,29.70,West,271,2.0,4.0,94,0.00,,,0.02,Wunderground v.1.15,2013-03-22 22:57:00,
2013-03-22 18:58:00,25.7,24.2,29.69,West,263,2.0,4.0,94,0.00,,,0.02,Wunderground v.1.15,2013-03-22 22:58:00,
2013-03-22 19:00:00,25.7,24.2,29.70,WSW,250,2.0,3.0,94,0.00,,,0.02,Wunderground v.1.15,2013-03-22 23:00:00,
2013-03-22 19:01:00,25.7,24.2,29.70,WSW,250,4.0,4.0,94,0.00,,,0.02,Wunderground v.1.15,2013-03-22 23:01:00,
2013-03-22 19:02:00,25.6,24.1,29.70,WSW,257,3.0,4.0,94,0.00,,,0.02,Wunderground v.1.15,2013-03-22 23:02:00,
2013-03-22 19:03:00,25.6,24.1,29.70,West,281,3.0,4.0,94,0.00,,,0.02,Wunderground v.1.15,2013-03-22 23:03:00,
2013-03-22 19:05:00,25.5,24.0,29.70,West,281,3.0,4.0,94,0.00,,,0.02,Wunderground v.1.15,2013-03-22 23:05:00,
2013-03-22 19:07:00,25.5,24.0,29.70,West,260,2.0,4.0,94,0.00,,,0.02,Wunderground v.1.15,2013-03-22 23:07:00,
2013-03-22 19:08:00,25.4,23.9,29.70,WSW,244,1.0,7.0,94,0.00,,,0.02,Wunderground v.1.15,2013-03-22 23:08:00,
2013-03-22 19:11:00,25.3,23.8,29.70,WNW,294,3.0,4.0,94,0.00,,,0.02,Wunderground v.1.15,2013-03-22 23:11:00,
2013-03-22 19:12:00,25.3,23.8,29.70,WSW,243,4.0,4.0,94,0.00,,,0.02,Wunderground v.1.15,2013-03-22 23:12:00,
2013-03-22 19:13:00,25.3,23.8,29.70,SW,219,3.0,5.0,94,0.00,,,0.02,Wunderground v.1.15,2013-03-22 23:13:00,
2013-03-22 19:16:00,25.2,23.7,29.70,WSW,246,3.0,6.0,94,0.00,,,0.02,Wunderground v.1.15,2013-03-22 23:16:00,
2013-03-22 19:17:00,25.1,23.6,29.70,West,276,2.0,6.0,94,0.00,,,0.02,Wunderground v.1.15,2013-03-22 23:17:00,
2013-03-22 19:18:00,25.1,23.6,29.70,WSW,252,4.0,6.0,94,0.00,,,0.02,Wunderground v.1.15,2013-03-22 23:18:00,
2013-03-22 19:19:00,25.1,23.6,29.70,West,263,5.0,6.0,94,0.00,,,0.02,Wunderground v.1.15,2013-03-22 23:19:00,
2013-03-22 19:22:00,25.1,23.6,29.70,SW,221,2.0,5.0,94,0.00,,,0.02,Wunderground v.1.15,2013-03-22 23:22:00,
2013-03-22 19:23:00,25.1,23.6,29.70,SW,223,5.0,6.0,94,0.00,,,0.02,Wunderground v.1.15,2013-03-22 23:23:00,
2013-03-22 19:24:00,25.0,23.5,29.70,WSW,248,4.0,7.0,94,0.00,,,0.02,Wunderground v.1.15,2013-03-22 23:24:00,
2013-03-22 19:27:00,24.9,23.4,29.71,West,271,3.0,7.0,94,0.00,,,0.02,Wunderground v.1.15,2013-03-22 23:27:00,
2013-03-22 19:28:00,24.9,23.4,29.71,West,266,2.0,7.0,94,0.00,,,0.02,Wunderground v.1.15,2013-03-22 23:28:00,
2013-03-22 19:29:00,24.9,23.4,29.71,WSW,253,2.0,7.0,94,0.00,,,0.02,Wunderground v.1.15,2013-03-22 23:29:00,
2013-03-22 19:32:00,24.9,23.4,29.71,West,271,5.0,5.0,94,0.00,,,0.02,Wunderground v.1.15,2013-03-22 23:32:00,
2013-03-22 19:33:00,24.9,23.4,29.71,SSW,202,4.0,7.0,94,0.00,,,0.02,Wunderground v.1.15,2013-03-22 23:33:00,
2013-03-22 19:34:00,24.8,23.3,29.71,West,263,2.0,7.0,94,0.00,,,0.02,Wunderground v.1.15,2013-03-22 23:34:00,
2013-03-22 19:38:00,24.7,23.2,29.71,SW,222,1.0,7.0,94,0.00,,,0.02,Wunderground v.1.15,2013-03-22 23:38:00,
2013-03-22 19:39:00,24.7,23.2,29.71,West,276,6.0,7.0,94,0.00,,,0.02,Wunderground v.1.15,2013-03-22 23:39:00,
2013-03-22 19:43:00,24.6,23.1,29.71,SW,232,4.0,6.0,94,0.00,,,0.02,Wunderground v.1.15,2013-03-22 23:43:00,
2013-03-22 19:44:00,24.6,23.1,29.72,WSW,250,4.0,6.0,94,0.00,,,0.02,Wunderground v.1.15,2013-03-22 23:44:00,
2013-03-22 19:45:00,24.6,23.1,29.71,WSW,238,2.0,6.0,94,0.00,,,0.02,Wunderground v.1.15,2013-03-22 23:45:00,
2013-03-22 19:48:00,24.5,23.0,29.72,West,261,3.0,6.0,94,0.00,,,0.02,Wunderground v.1.15,2013-03-22 23:48:00,
2013-03-22 19:50:00,24.5,23.0,29.72,WSW,238,3.0,6.0,94,0.00,,,0.02,Wunderground v.1.15,2013-03-22 23:50:00,
2013-03-22 19:53:00,24.5,23.0,29.72,West,260,4.0,8.0,94,0.00,,,0.02,Wunderground v.1.15,2013-03-22 23:53:00,
2013-03-22 19:55:00,24.5,23.0,29.72,West,267,3.0,8.0,94,0.00,,,0.02,Wunderground v.1.15,2013-03-22 23:55:00,
2013-03-22 19:59:00,24.4,22.9,29.72,WSW,248,3.0,8.0,94,0.00,,,0.02,Wunderground v.1.15,2013-03-22 23:59:00,
2013-03-22 20:00:00,24.4,22.9,29.72,WSW,249,2.0,3.0,94,0.00,,,0.02,Wunderground v.1.15,2013-03-23 00:00:00,
2013-03-22 20:04:00,24.4,22.9,29.72,West,264,4.0,8.0,94,0.00,,,0.02,Wunderground v.1.15,2013-03-23 00:04:00,
2013-03-22 20:05:00,24.4,22.9,29.72,West,263,3.0,8.0,94,0.00,,,0.02,Wunderground v.1.15,2013-03-23 00:05:00,
2013-03-22 20:09:00,24.3,22.8,29.72,WSW,254,1.0,9.0,94,0.00,,,0.02,Wunderground v.1.15,2013-03-23 00:09:00,
2013-03-22 20:10:00,24.3,22.8,29.72,West,261,4.0,4.0,94,0.00,,,0.02,Wunderground v.1.15,2013-03-23 00:10:00,
2013-03-22 20:11:00,24.3,22.8,29.72,WSW,258,4.0,4.0,94,0.00,,,0.02,Wunderground v.1.15,2013-03-23 00:11:00,
2013-03-22 20:14:00,24.3,22.8,29.72,West,259,3.0,5.0,94,0.00,,,0.02,Wunderground v.1.15,2013-03-23 00:14:00,
2013-03-22 20:15:00,24.3,22.8,29.72,West,265,2.0,7.0,94,0.00,,,0.02,Wunderground v.1.15,2013-03-23 00:15:00,
2013-03-22 20:16:00,24.3,22.8,29.72,WNW,303,8.0,8.0,94,0.00,,,0.02,Wunderground v.1.15,2013-03-23 00:16:00,
2013-03-22 20:20:00,24.2,22.7,29.72,SSW,196,0.0,8.0,94,0.00,,,0.02,Wunderground v.1.15,2013-03-23 00:20:00,
2013-03-22 20:21:00,24.2,22.7,29.72,WSW,256,2.0,4.0,94,0.00,,,0.02,Wunderground v.1.15,2013-03-23 00:21:00,
2013-03-22 20:25:00,24.3,23.1,29.72,West,273,2.0,5.0,95,0.00,,,0.02,Wunderground v.1.15,2013-03-23 00:25:00,
2013-03-22 20:26:00,24.3,23.1,29.72,WSW,241,2.0,5.0,95,0.00,,,0.02,Wunderground v.1.15,2013-03-23 00:26:00,
2013-03-22 20:27:00,24.3,23.1,29.72,WSW,251,4.0,5.0,95,0.00,,,0.02,Wunderground v.1.15,2013-03-23 00:27:00,
2013-03-22 20:30:00,24.3,23.1,29.72,West,262,3.0,4.0,95,0.00,,,0.02,Wunderground v.1.15,2013-03-23 00:30:00,
2013-03-22 20:32:00,24.3,23.1,29.72,West,273,3.0,4.0,95,0.00,,,0.02,Wunderground v.1.15,2013-03-23 00:32:00,
2013-03-22 20:33:00,24.3,23.1,29.72,West,260,3.0,7.0,95,0.00,,,0.02,Wunderground v.1.15,2013-03-23 00:33:00,
2013-03-22 20:35:00,24.3,23.1,29.72,West,259,2.0,7.0,95,0.00,,,0.02,Wunderground v.1.15,2013-03-23 00:35:00,
2013-03-22 20:37:00,24.3,23.1,29.73,SSW,213,3.0,7.0,95,0.00,,,0.02,Wunderground v.1.15,2013-03-23 00:37:00,
2013-03-22 20:38:00,24.4,23.2,29.73,West,261,5.0,7.0,95,0.00,,,0.02,Wunderground v.1.15,2013-03-23 00:38:00,
2013-03-22 20:40:00,24.3,23.1,29.73,West,262,2.0,4.0,95,0.00,,,0.02,Wunderground v.1.15,2013-03-23 00:40:00,
2013-03-22 20:42:00,24.3,23.1,29.73,WSW,255,3.0,5.0,95,0.00,,,0.02,Wunderground v.1.15,2013-03-23 00:42:00,
2013-03-22 20:43:00,24.3,23.1,29.73,WSW,241,3.0,5.0,95,0.00,,,0.02,Wunderground v.1.15,2013-03-23 00:43:00,
2013-03-22 20:45:00,24.2,22.7,29.73,WSW,252,6.0,9.0,94,0.00,,,0.02,Wunderground v.1.15,2013-03-23 00:45:00,
2013-03-22 20:48:00,24.1,22.6,29.73,West,270,4.0,9.0,94,0.00,,,0.02,Wunderground v.1.15,2013-03-23 00:48:00,
2013-03-22 20:50:00,24.0,22.5,29.73,West,281,3.0,4.0,94,0.00,,,0.02,Wunderground v.1.15,2013-03-23 00:50:00,
2013-03-22 20:53:00,24.0,22.5,29.73,South,181,4.0,7.0,94,0.00,,,0.02,Wunderground v.1.15,2013-03-23 00:53:00,
2013-03-22 20:55:00,23.9,22.4,29.73,WSW,244,1.0,7.0,94,0.00,,,0.02,Wunderground v.1.15,2013-03-23 00:55:00,
2013-03-22 20:58:00,23.8,22.3,29.73,West,272,4.0,7.0,94,0.00,,,0.02,Wunderground v.1.15,2013-03-23 00:58:00,
2013-03-22 20:59:00,23.8,22.3,29.73,SW,225,4.0,7.0,94,0.00,,,0.02,Wunderground v.1.15,2013-03-23 00:59:00,
2013-03-22 21:00:00,23.8,22.3,29.73,West,266,5.0,5.0,94,0.00,,,0.02,Wunderground v.1.15,2013-03-23 01:00:00,
2013-03-22 21:03:00,23.7,22.2,29.73,SSW,213,2.0,9.0,94,0.00,,,0.02,Wunderground v.1.15,2013-03-23 01:03:00,
2013-03-22 21:04:00,23.7,22.2,29.73,WNW,296,3.0,9.0,94,0.00,,,0.02,Wunderground v.1.15,2013-03-23 01:04:00,
2013-03-22 21:05:00,23.6,22.1,29.73,West,274,10.0,10.0,94,0.00,,,0.02,Wunderground v.1.15,2013-03-23 01:05:00,
2013-03-22 21:08:00,23.5,22.0,29.73,West,265,3.0,10.0,94,0.00,,,0.02,Wunderground v.1.15,2013-03-23 01:08:00,
2013-03-22 21:09:00,23.4,21.9,29.73,SSW,202,3.0,10.0,94,0.00,,,0.02,Wunderground v.1.15,2013-03-23 01:09:00,
2013-03-22 21:11:00,23.4,21.9,29.73,SW,234,2.0,5.0,94,0.00,,,0.02,Wunderground v.1.15,2013-03-23 01:11:00,
2013-03-22 21:13:00,23.3,21.8,29.73,West,270,0.0,11.0,94,0.00,,,0.02,Wunderground v.1.15,2013-03-23 01:13:00,
2013-03-22 21:14:00,23.3,21.8,29.73,SW,232,3.0,11.0,94,0.00,,,0.02,Wunderground v.1.15,2013-03-23 01:14:00,
2013-03-22 21:17:00,23.2,21.7,29.74,West,271,2.0,11.0,94,0.00,,,0.02,Wunderground v.1.15,2013-03-23 01:17:00,
2013-03-22 21:18:00,23.2,21.7,29.73,WSW,257,4.0,11.0,94,0.00,,,0.02,Wunderground v.1.15,2013-03-23 01:18:00,
2013-03-22 21:19:00,23.1,21.6,29.74,WSW,250,3.0,11.0,94,0.00,,,0.02,Wunderground v.1.15,2013-03-23 01:19:00,
2013-03-22 21:20:00,23.2,21.7,29.74,WNW,290,3.0,4.0,94,0.00,,,0.02,Wunderground v.1.15,2013-03-23 01:20:00,
2013-03-22 21:22:00,23.1,21.6,29.74,West,261,3.0,7.0,94,0.00,,,0.02,Wunderground v.1.15,2013-03-23 01:22:00,
2013-03-22 21:24:00,23.1,21.6,29.74,West,263,6.0,9.0,94,0.00,,,0.02,Wunderground v.1.15,2013-03-23 01:24:00,
2013-03-22 21:25:00,23.0,21.5,29.74,WNW,297,11.0,11.0,94,0.00,,,0.02,Wunderground v.1.15,2013-03-23 01:25:00,
2013-03-22 21:28:00,22.7,21.0,29.74,SW,216,4.0,11.0,93,0.00,,,0.02,Wunderground v.1.15,2013-03-23 01:28:00,
2013-03-22 21:29:00,22.7,21.0,29.74,WNW,298,1.0,11.0,93,0.00,,,0.02,Wunderground v.1.15,2013-03-23 01:29:00,
2013-03-22 21:30:00,22.6,20.9,29.74,North,355,3.0,6.0,93,0.00,,,0.02,Wunderground v.1.15,2013-03-23 01:30:00,
2013-03-22 21:34:00,22.4,20.7,29.74,West,266,9.0,11.0,93,0.00,,,0.02,Wunderground v.1.15,2013-03-23 01:34:00,
2013-03-22 21:35:00,22.3,20.6,29.74,West,262,6.0,11.0,93,0.00,,,0.02,Wunderground v.1.15,2013-03-23 01:35:00,
2013-03-22 21:39:00,22.1,20.4,29.74,West,273,5.0,11.0,93,0.00,,,0.02,Wunderground v.1.15,2013-03-23 01:39:00,
2013-03-22 21:40:00,22.1,20.4,29.74,WNW,293,4.0,5.0,93,0.00,,,0.02,Wunderground v.1.15,2013-03-23 01:40:00,
2013-03-22 21:44:00,22.1,20.4,29.74,West,259,1.0,8.0,93,0.00,,,0.02,Wunderground v.1.15,2013-03-23 01:44:00,
2013-03-22 21:45:00,22.0,20.3,29.75,West,267,5.0,8.0,93,0.00,,,0.02,Wunderground v.1.15,2013-03-23 01:45:00,
2013-03-22 21:46:00,22.0,20.3,29.74,WNW,302,3.0,8.0,93,0.00,,,0.02,Wunderground v.1.15,2013-03-23 01:46:00,
2013-03-22 21:49:00,21.9,20.2,29.74,WSW,248,4.0,8.0,93,0.00,,,0.02,Wunderground v.1.15,2013-03-23 01:49:00,
2013-03-22 21:50:00,21.9,20.2,29.74,WSW,252,3.0,8.0,93,0.00,,,0.02,Wunderground v.1.15,2013-03-23 01:50:00,
2013-03-22 21:51:00,21.9,20.2,29.74,West,268,2.0,5.0,93,0.00,,,0.02,Wunderground v.1.15,2013-03-23 01:51:00,
2013-03-22 21:54:00,21.8,20.1,29.74,West,271,4.0,8.0,93,0.00,,,0.02,Wunderground v.1.15,2013-03-23 01:54:00,
2013-03-22 21:55:00,21.8,20.1,29.75,West,280,5.0,8.0,93,0.00,,,0.02,Wunderground v.1.15,2013-03-23 01:55:00,
2013-03-22 21:56:00,21.8,20.1,29.74,WNW,303,0.0,9.0,93,0.00,,,0.02,Wunderground v.1.15,2013-03-23 01:56:00,
2013-03-22 21:59:00,21.8,19.8,29.75,NW,322,2.0,10.0,92,0.00,,,0.02,Wunderground v.1.15,2013-03-23 01:59:00,
2013-03-22 22:00:00,21.8,19.8,29.74,WNW,296,5.0,7.0,92,0.00,,,0.02,Wunderground v.1.15,2013-03-23 02:00:00,
2013-03-22 22:02:00,21.8,19.8,29.74,West,278,1.0,7.0,92,0.00,,,0.02,Wunderground v.1.15,2013-03-23 02:02:00,
2013-03-22 22:05:00,21.7,19.7,29.74,West,263,5.0,8.0,92,0.00,,,0.02,Wunderground v.1.15,2013-03-23 02:05:00,
2013-03-22 22:06:00,21.7,19.7,29.75,West,269,5.0,9.0,92,0.00,,,0.02,Wunderground v.1.15,2013-03-23 02:06:00,
2013-03-22 22:07:00,21.7,19.7,29.74,NNW,348,1.0,9.0,92,0.00,,,0.02,Wunderground v.1.15,2013-03-23 02:07:00,
2013-03-22 22:10:00,21.7,20.0,29.74,WSW,256,2.0,4.0,93,0.00,,,0.02,Wunderground v.1.15,2013-03-23 02:10:00,
2013-03-22 22:12:00,21.7,20.0,29.74,West,259,2.0,5.0,93,0.00,,,0.02,Wunderground v.1.15,2013-03-23 02:12:00,
2013-03-22 22:15:00,21.7,20.0,29.74,West,261,5.0,9.0,93,0.00,,,0.02,Wunderground v.1.15,2013-03-23 02:15:00,
2013-03-22 22:17:00,21.6,19.9,29.74,West,278,3.0,9.0,93,0.00,,,0.02,Wunderground v.1.15,2013-03-23 02:17:00,
2013-03-22 22:20:00,21.6,19.9,29.74,SW,224,7.0,8.0,93,0.00,,,0.02,Wunderground v.1.15,2013-03-23 02:20:00,
2013-03-22 22:21:00,21.6,19.9,29.74,WNW,291,9.0,9.0,93,0.00,,,0.02,Wunderground v.1.15,2013-03-23 02:21:00,
2013-03-22 22:22:00,21.5,19.8,29.74,West,263,5.0,9.0,93,0.00,,,0.02,Wunderground v.1.15,2013-03-23 02:22:00,
2013-03-22 22:25:00,21.5,19.8,29.74,SW,230,5.0,9.0,93,0.00,,,0.02,Wunderground v.1.15,2013-03-23 02:25:00,
2013-03-22 22:26:00,21.5,19.8,29.74,WSW,250,4.0,9.0,93,0.00,,,0.02,Wunderground v.1.15,2013-03-23 02:26:00,
2013-03-22 22:28:00,21.4,19.7,29.74,SW,235,4.0,9.0,93,0.00,,,0.02,Wunderground v.1.15,2013-03-23 02:28:00,
2013-03-22 22:30:00,21.3,19.6,29.75,West,262,3.0,6.0,93,0.00,,,0.02,Wunderground v.1.15,2013-03-23 02:30:00,
2013-03-22 22:31:00,21.3,19.6,29.74,West,262,5.0,6.0,93,0.00,,,0.02,Wunderground v.1.15,2013-03-23 02:31:00,
2013-03-22 22:33:00,21.3,19.6,29.74,WNW,290,2.0,10.0,93,0.00,,,0.02,Wunderground v.1.15,2013-03-23 02:33:00,
2013-03-22 22:36:00,21.3,19.6,29.75,West,270,8.0,12.0,93,0.00,,,0.02,Wunderground v.1.15,2013-03-23 02:36:00,
2013-03-22 22:38:00,21.2,19.5,29.75,West,259,5.0,12.0,93,0.00,,,0.02,Wunderground v.1.15,2013-03-23 02:38:00,
2013-03-22 22:41:00,21.2,19.5,29.74,WSW,257,4.0,5.0,93,0.00,,,0.02,Wunderground v.1.15,2013-03-23 02:41:00,
2013-03-22 22:42:00,21.2,19.5,29.75,WNW,296,0.0,5.0,93,0.00,,,0.02,Wunderground v.1.15,2013-03-23 02:42:00,
2013-03-22 22:43:00,21.2,19.5,29.75,WNW,282,4.0,6.0,93,0.00,,,0.02,Wunderground v.1.15,2013-03-23 02:43:00,
2013-03-22 22:44:00,21.2,19.5,29.75,WSW,257,3.0,6.0,93,0.00,,,0.02,Wunderground v.1.15,2013-03-23 02:44:00,
2013-03-22 22:46:00,21.2,19.5,29.75,West,259,2.0,6.0,93,0.00,,,0.02,Wunderground v.1.15,2013-03-23 02:46:00,
2013-03-22 22:47:00,21.2,19.5,29.75,West,265,3.0,6.0,93,0.00,,,0.02,Wunderground v.1.15,2013-03-23 02:47:00,
2013-03-22 22:48:00,21.2,19.5,29.75,West,259,1.0,6.0,93,0.00,,,0.02,Wunderground v.1.15,2013-03-23 02:48:00,
2013-03-22 22:49:00,21.2,19.5,29.75,West,273,5.0,7.0,93,0.00,,,0.02,Wunderground v.1.15,2013-03-23 02:49:00,
2013-03-22 22:51:00,21.2,19.5,29.75,West,260,3.0,5.0,93,0.00,,,0.02,Wunderground v.1.15,2013-03-23 02:51:00,
2013-03-22 22:52:00,21.2,19.5,29.75,SW,234,3.0,7.0,93,0.00,,,0.02,Wunderground v.1.15,2013-03-23 02:52:00,
2013-03-22 22:53:00,21.2,19.5,29.75,WNW,282,5.0,7.0,93,0.00,,,0.02,Wunderground v.1.15,2013-03-23 02:53:00,
2013-03-22 22:55:00,21.2,19.5,29.75,NNW,335,3.0,7.0,93,0.00,,,0.02,Wunderground v.1.15,2013-03-23 02:55:00,
2013-03-22 22:57:00,21.2,19.5,29.75,WSW,254,0.0,7.0,93,0.00,,,0.02,Wunderground v.1.15,2013-03-23 02:57:00,
2013-03-22 22:59:00,21.2,19.5,29.75,West,263,1.0,7.0,93,0.00,,,0.02,Wunderground v.1.15,2013-03-23 02:59:00,
2013-03-22 23:00:00,21.2,19.5,29.75,WNW,292,4.0,4.0,93,0.00,,,0.02,Wunderground v.1.15,2013-03-23 03:00:00,
2013-03-22 23:02:00,21.2,19.5,29.75,WSW,257,4.0,7.0,93,0.00,,,0.02,Wunderground v.1.15,2013-03-23 03:02:00,
2013-03-22 23:04:00,21.2,19.5,29.75,WSW,240,3.0,7.0,93,0.00,,,0.02,Wunderground v.1.15,2013-03-23 03:04:00,
2013-03-22 23:05:00,21.2,19.5,29.75,West,264,5.0,7.0,93,0.00,,,0.02,Wunderground v.1.15,2013-03-23 03:05:00,
2013-03-22 23:07:00,21.2,19.5,29.75,West,269,3.0,7.0,93,0.00,,,0.02,Wunderground v.1.15,2013-03-23 03:07:00,
2013-03-22 23:08:00,21.1,19.4,29.75,NW,305,9.0,9.0,93,0.00,,,0.02,Wunderground v.1.15,2013-03-23 03:08:00,
2013-03-22 23:10:00,21.1,19.4,29.74,West,269,3.0,4.0,93,0.00,,,0.02,Wunderground v.1.15,2013-03-23 03:10:00,
2013-03-22 23:12:00,21.1,19.4,29.74,West,275,2.0,8.0,93,0.00,,,0.02,Wunderground v.1.15,2013-03-23 03:12:00,
2013-03-22 23:13:00,21.1,19.4,29.74,West,262,2.0,8.0,93,0.00,,,0.02,Wunderground v.1.15,2013-03-23 03:13:00,
2013-03-22 23:16:00,21.1,19.4,29.74,WSW,252,3.0,8.0,93,0.00,,,0.02,Wunderground v.1.15,2013-03-23 03:16:00,
2013-03-22 23:17:00,21.1,19.4,29.74,West,272,2.0,8.0,93,0.00,,,0.02,Wunderground v.1.15,2013-03-23 03:17:00,
2013-03-22 23:18:00,21.1,19.4,29.74,West,265,3.0,8.0,93,0.00,,,0.02,Wunderground v.1.15,2013-03-23 03:18:00,
2013-03-22 23:22:00,21.1,19.4,29.74,SW,234,3.0,8.0,93,0.00,,,0.02,Wunderground v.1.15,2013-03-23 03:22:00,
2013-03-22 23:23:00,21.1,19.4,29.74,WNW,294,6.0,8.0,93,0.00,,,0.02,Wunderground v.1.15,2013-03-23 03:23:00,
2013-03-22 23:27:00,21.0,19.3,29.74,West,281,3.0,9.0,93,0.00,,,0.02,Wunderground v.1.15,2013-03-23 03:27:00,
2013-03-22 23:28:00,21.1,19.4,29.73,WSW,248,2.0,9.0,93,0.00,,,0.02,Wunderground v.1.15,2013-03-23 03:28:00,
2013-03-22 23:33:00,21.0,19.3,29.73,WNW,290,3.0,6.0,93,0.00,,,0.02,Wunderground v.1.15,2013-03-23 03:33:00,
2013-03-22 23:38:00,21.0,19.3,29.74,West,259,4.0,9.0,93,0.00,,,0.02,Wunderground v.1.15,2013-03-23 03:38:00,
2013-03-22 23:39:00,21.0,19.3,29.74,West,259,6.0,9.0,93,0.00,,,0.02,Wunderground v.1.15,2013-03-23 03:39:00,
2013-03-22 23:43:00,20.9,19.4,29.74,West,263,4.0,8.0,94,0.00,,,0.02,Wunderground v.1.15,2013-03-23 03:43:00,
2013-03-22 23:44:00,21.0,19.5,29.74,WSW,254,4.0,8.0,94,0.00,,,0.02,Wunderground v.1.15,2013-03-23 03:44:00,
2013-03-22 23:45:00,20.9,19.4,29.74,WSW,254,2.0,8.0,94,0.00,,,0.02,Wunderground v.1.15,2013-03-23 03:45:00,
2013-03-22 23:48:00,20.9,19.4,29.74,SW,229,3.0,8.0,94,0.00,,,0.02,Wunderground v.1.15,2013-03-23 03:48:00,
2013-03-22 23:49:00,20.9,19.4,29.74,West,261,3.0,8.0,94,0.00,,,0.02,Wunderground v.1.15,2013-03-23 03:49:00,
2013-03-22 23:50:00,20.9,19.4,29.74,West,259,3.0,3.0,94,0.00,,,0.02,Wunderground v.1.15,2013-03-23 03:50:00,
2013-03-22 23:53:00,21.0,19.5,29.74,West,259,2.0,5.0,94,0.00,,,0.02,Wunderground v.1.15,2013-03-23 03:53:00,
2013-03-22 23:54:00,21.0,19.5,29.75,WSW,252,1.0,5.0,94,0.00,,,0.02,Wunderground v.1.15,2013-03-23 03:54:00,
2013-03-22 23:55:00,21.0,19.5,29.75,West,269,4.0,5.0,94,0.00,,,0.02,Wunderground v.1.15,2013-03-23 03:55:00,
2013-03-22 23:59:00,21.0,19.5,29.74,West,274,3.0,5.0,94,0.00,,,0.02,Wunderground v.1.15,2013-03-23 03:59:00,